Time,TemperatureF,DewpointF,PressureIn,WindDirection,WindDirectionDegrees,WindSpeedMPH,WindSpeedGustMPH,Humidity,HourlyPrecipIn,Conditions,Clouds,dailyrainin,SoftwareType,DateUTC
2013-01-24 00:00:00,38.1,36.8,30.11,WSW,238,0.0,0.0,95,0.00,,,0.63,Wunderground v.1.15,2013-01-24 08:00:00,
2013-01-24 00:02:00,38.0,36.7,30.12,WSW,238,0.0,0.0,95,0.00,,,0.00,Wunderground v.1.15,2013-01-24 08:02:00,
2013-01-24 00:05:00,38.0,36.7,30.12,WSW,238,0.0,0.0,95,0.00,,,0.00,Wunderground v.1.15,2013-01-24 08:05:00,
2013-01-24 00:06:00,38.0,36.7,30.12,WSW,238,0.0,0.0,95,0.00,,,0.00,Wunderground v.1.15,2013-01-24 08:06:00,
2013-01-24 00:11:00,38.0,36.7,30.12,WSW,238,0.0,0.0,95,0.00,,,0.00,Wunderground v.1.15,2013-01-24 08:11:00,
2013-01-24 00:12:00,38.0,36.7,30.12,WSW,238,0.0,0.0,95,0.00,,,0.00,Wunderground v.1.15,2013-01-24 08:12:00,
2013-01-24 00:13:00,38.0,36.7,30.12,WSW,238,0.0,0.0,95,0.00,,,0.00,Wunderground v.1.15,2013-01-24 08:13:00,
2013-01-24 00:14:00,38.0,36.7,30.12,WSW,238,0.0,0.0,95,0.00,,,0.00,Wunderground v.1.15,2013-01-24 08:14:00,
2013-01-24 00:19:00,37.8,36.5,30.12,WSW,238,0.0,0.0,95,0.00,,,0.00,Wunderground v.1.15,2013-01-24 08:19:00,
2013-01-24 00:20:00,37.8,36.5,30.12,WSW,238,0.0,0.0,95,0.00,,,0.00,Wunderground v.1.15,2013-01-24 08:20:00,
2013-01-24 00:22:00,37.8,36.5,30.12,WSW,238,0.0,0.0,95,0.00,,,0.00,Wunderground v.1.15,2013-01-24 08:22:00,
2013-01-24 00:26:00,37.8,36.5,30.12,WSW,238,0.0,0.0,95,0.00,,,0.00,Wunderground v.1.15,2013-01-24 08:26:00,
2013-01-24 00:27:00,37.8,36.5,30.12,WSW,238,0.0,0.0,95,0.00,,,0.00,Wunderground v.1.15,2013-01-24 08:27:00,
2013-01-24 00:28:00,37.8,36.5,30.12,WSW,238,0.0,0.0,95,0.00,,,0.00,Wunderground v.1.15,2013-01-24 08:28:00,
2013-01-24 00:29:00,37.8,36.5,30.12,WSW,238,0.0,0.0,95,0.00,,,0.00,Wunderground v.1.15,2013-01-24 08:29:00,
2013-01-24 00:32:00,37.7,36.4,30.13,WSW,238,0.0,0.0,95,0.00,,,0.00,Wunderground v.1.15,2013-01-24 08:32:00,
2013-01-24 00:33:00,37.7,36.4,30.13,WSW,238,0.0,0.0,95,0.00,,,0.00,Wunderground v.1.15,2013-01-24 08:33:00,
2013-01-24 00:35:00,37.7,36.4,30.13,WSW,238,0.0,0.0,95,0.00,,,0.00,Wunderground v.1.15,2013-01-24 08:35:00,
2013-01-24 00:36:00,37.7,36.4,30.13,WSW,238,0.0,0.0,95,0.00,,,0.00,Wunderground v.1.15,2013-01-24 08:36:00,
2013-01-24 00:39:00,37.7,36.4,30.13,WSW,238,0.0,0.0,95,0.00,,,0.00,Wunderground v.1.15,2013-01-24 08:39:00,
2013-01-24 00:42:00,37.7,36.4,30.13,WSW,238,0.0,0.0,95,0.00,,,0.00,Wunderground v.1.15,2013-01-24 08:42:00,
2013-01-24 00:44:00,37.7,36.4,30.13,WSW,238,0.0,0.0,95,0.00,,,0.00,Wunderground v.1.15,2013-01-24 08:44:00,
2013-01-24 00:45:00,37.7,36.4,30.13,WSW,238,0.0,0.0,95,0.00,,,0.00,Wunderground v.1.15,2013-01-24 08:45:00,
2013-01-24 00:49:00,37.5,36.2,30.14,WSW,238,0.0,0.0,95,0.00,,,0.00,Wunderground v.1.15,2013-01-24 08:49:00,
2013-01-24 00:50:00,37.5,36.2,30.14,WSW,238,0.0,0.0,95,0.00,,,0.00,Wunderground v.1.15,2013-01-24 08:50:00,
2013-01-24 00:52:00,37.5,36.2,30.14,WSW,238,0.0,0.0,95,0.00,,,0.00,Wunderground v.1.15,2013-01-24 08:52:00,
2013-01-24 00:54:00,37.5,36.2,30.14,WSW,238,0.0,0.0,95,0.00,,,0.00,Wunderground v.1.15,2013-01-24 08:54:00,
2013-01-24 00:56:00,37.5,36.2,30.14,WSW,238,0.0,0.0,95,0.00,,,0.00,Wunderground v.1.15,2013-01-24 08:56:00,
2013-01-24 00:58:00,37.5,36.2,30.14,WSW,238,0.0,0.0,95,0.00,,,0.00,Wunderground v.1.15,2013-01-24 08:58:00,
2013-01-24 01:00:00,37.5,36.2,30.14,WSW,238,0.0,0.0,95,0.00,,,0.00,Wunderground v.1.15,2013-01-24 09:00:00,
2013-01-24 01:01:00,37.5,36.2,30.14,WSW,238,0.0,0.0,95,0.00,,,0.00,Wunderground v.1.15,2013-01-24 09:01:00,
2013-01-24 01:03:00,37.5,36.2,30.14,WSW,238,0.0,0.0,95,0.00,,,0.00,Wunderground v.1.15,2013-01-24 09:03:00,
2013-01-24 01:07:00,37.5,36.2,30.14,WSW,238,0.0,0.0,95,0.00,,,0.00,Wunderground v.1.15,2013-01-24 09:07:00,
2013-01-24 01:11:00,37.5,36.2,30.14,WSW,238,0.0,0.0,95,0.00,,,0.00,Wunderground v.1.15,2013-01-24 09:11:00,
2013-01-24 01:12:00,37.5,36.2,30.14,WSW,238,0.0,0.0,95,0.00,,,0.00,Wunderground v.1.15,2013-01-24 09:12:00,
2013-01-24 01:13:00,37.5,36.2,30.14,WSW,238,0.0,0.0,95,0.00,,,0.00,Wunderground v.1.15,2013-01-24 09:13:00,
2013-01-24 01:17:00,37.5,36.2,30.15,WSW,238,0.0,0.0,95,0.00,,,0.00,Wunderground v.1.15,2013-01-24 09:17:00,
2013-01-24 01:18:00,37.5,36.2,30.15,WSW,238,0.0,0.0,95,0.00,,,0.00,Wunderground v.1.15,2013-01-24 09:18:00,
2013-01-24 01:19:00,37.5,36.2,30.15,WSW,238,0.0,0.0,95,0.00,,,0.01,Wunderground v.1.15,2013-01-24 09:19:00,
2013-01-24 01:23:00,37.5,36.2,30.15,WSW,238,0.0,0.0,95,0.00,,,0.01,Wunderground v.1.15,2013-01-24 09:23:00,
2013-01-24 01:25:00,37.5,36.2,30.15,WSW,238,0.0,0.0,95,0.00,,,0.01,Wunderground v.1.15,2013-01-24 09:25:00,
2013-01-24 01:26:00,37.5,36.2,30.15,WSW,238,0.0,0.0,95,0.00,,,0.01,Wunderground v.1.15,2013-01-24 09:26:00,
2013-01-24 01:28:00,37.5,36.2,30.15,WSW,238,0.0,0.0,95,0.08,,,0.02,Wunderground v.1.15,2013-01-24 09:28:00,
2013-01-24 01:30:00,37.5,36.2,30.15,WSW,238,0.0,0.0,95,0.20,,,0.03,Wunderground v.1.15,2013-01-24 09:30:00,
2013-01-24 01:31:00,37.5,36.2,30.15,WSW,238,0.0,0.0,95,0.20,,,0.03,Wunderground v.1.15,2013-01-24 09:31:00,
2013-01-24 01:32:00,37.5,36.2,30.15,WSW,238,0.0,0.0,95,0.23,,,0.04,Wunderground v.1.15,2013-01-24 09:32:00,
2013-01-24 01:37:00,37.5,36.2,30.15,WSW,238,0.0,0.0,95,0.13,,,0.05,Wunderground v.1.15,2013-01-24 09:37:00,
2013-01-24 01:38:00,37.5,36.2,30.15,WSW,238,0.0,0.0,95,0.13,,,0.05,Wunderground v.1.15,2013-01-24 09:38:00,
2013-01-24 01:39:00,37.5,36.2,30.15,WSW,238,0.0,0.0,95,0.13,,,0.05,Wunderground v.1.15,2013-01-24 09:39:00,
2013-01-24 01:42:00,37.5,36.2,30.15,WSW,238,0.0,0.0,95,0.10,,,0.05,Wunderground v.1.15,2013-01-24 09:42:00,
2013-01-24 01:43:00,37.5,36.2,30.15,WSW,238,0.0,0.0,95,0.09,,,0.05,Wunderground v.1.15,2013-01-24 09:43:00,
2013-01-24 01:46:00,37.5,36.2,30.16,WSW,238,0.0,0.0,95,0.07,,,0.06,Wunderground v.1.15,2013-01-24 09:46:00,
2013-01-24 01:47:00,37.5,36.2,30.16,WSW,238,0.0,0.0,95,0.07,,,0.06,Wunderground v.1.15,2013-01-24 09:47:00,
2013-01-24 01:48:00,37.5,36.2,30.16,WSW,238,0.0,0.0,95,0.07,,,0.06,Wunderground v.1.15,2013-01-24 09:48:00,
2013-01-24 01:52:00,37.5,36.2,30.16,WSW,238,0.0,0.0,95,0.07,,,0.06,Wunderground v.1.15,2013-01-24 09:52:00,
2013-01-24 01:53:00,37.5,36.2,30.16,WSW,238,0.0,0.0,95,0.08,,,0.07,Wunderground v.1.15,2013-01-24 09:53:00,
2013-01-24 01:57:00,37.5,36.2,30.16,WSW,238,0.0,0.0,95,0.08,,,0.07,Wunderground v.1.15,2013-01-24 09:57:00,
2013-01-24 01:58:00,37.5,36.2,30.16,WSW,238,0.0,0.0,95,0.08,,,0.07,Wunderground v.1.15,2013-01-24 09:58:00,
2013-01-24 02:01:00,37.5,36.2,30.16,WSW,238,0.0,0.0,95,0.10,,,0.08,Wunderground v.1.15,2013-01-24 10:01:00,
2013-01-24 02:02:00,37.5,36.2,30.16,WSW,238,0.0,0.0,95,0.10,,,0.08,Wunderground v.1.15,2013-01-24 10:02:00,
2013-01-24 02:03:00,37.5,36.2,30.16,WSW,238,0.0,0.0,95,0.10,,,0.08,Wunderground v.1.15,2013-01-24 10:03:00,
2013-01-24 02:06:00,37.5,36.2,30.16,WSW,238,0.0,0.0,95,0.08,,,0.08,Wunderground v.1.15,2013-01-24 10:06:00,
2013-01-24 02:07:00,37.5,36.2,30.16,WSW,238,0.0,0.0,95,0.07,,,0.08,Wunderground v.1.15,2013-01-24 10:07:00,
2013-01-24 02:10:00,37.5,36.2,30.16,WSW,238,0.0,0.0,95,0.05,,,0.08,Wunderground v.1.15,2013-01-24 10:10:00,
2013-01-24 02:12:00,37.5,36.2,30.16,WSW,238,0.0,0.0,95,0.05,,,0.08,Wunderground v.1.15,2013-01-24 10:12:00,
2013-01-24 02:13:00,37.5,36.2,30.16,WSW,238,0.0,0.0,95,0.05,,,0.09,Wunderground v.1.15,2013-01-24 10:13:00,
2013-01-24 02:16:00,37.5,36.2,30.17,WSW,238,0.0,0.0,95,0.05,,,0.09,Wunderground v.1.15,2013-01-24 10:16:00,
2013-01-24 02:17:00,37.5,36.2,30.17,WSW,238,0.0,0.0,95,0.05,,,0.09,Wunderground v.1.15,2013-01-24 10:17:00,
2013-01-24 02:18:00,37.5,36.2,30.17,WSW,238,0.0,0.0,95,0.05,,,0.09,Wunderground v.1.15,2013-01-24 10:18:00,
2013-01-24 02:22:00,37.5,36.2,30.17,WSW,238,0.0,0.0,95,0.05,,,0.09,Wunderground v.1.15,2013-01-24 10:22:00,
2013-01-24 02:24:00,37.5,36.2,30.17,WSW,238,0.0,0.0,95,0.05,,,0.09,Wunderground v.1.15,2013-01-24 10:24:00,
2013-01-24 02:27:00,37.5,36.2,30.17,WSW,238,0.0,0.0,95,0.04,,,0.09,Wunderground v.1.15,2013-01-24 10:27:00,
2013-01-24 02:28:00,37.5,36.2,30.17,WSW,238,0.0,0.0,95,0.04,,,0.09,Wunderground v.1.15,2013-01-24 10:28:00,
2013-01-24 02:30:00,37.5,36.2,30.17,WSW,238,0.0,0.0,95,0.00,,,0.09,Wunderground v.1.15,2013-01-24 10:30:00,
2013-01-24 02:32:00,37.4,36.1,30.17,WSW,238,0.0,0.0,95,0.00,,,0.09,Wunderground v.1.15,2013-01-24 10:32:00,
2013-01-24 02:33:00,37.4,36.1,30.17,WSW,238,0.0,0.0,95,0.00,,,0.09,Wunderground v.1.15,2013-01-24 10:33:00,
2013-01-24 02:34:00,37.4,36.1,30.17,WSW,238,0.0,0.0,95,0.00,,,0.09,Wunderground v.1.15,2013-01-24 10:34:00,
2013-01-24 02:36:00,37.4,36.1,30.17,WSW,238,0.0,0.0,95,0.00,,,0.09,Wunderground v.1.15,2013-01-24 10:36:00,
2013-01-24 02:38:00,37.4,36.1,30.17,WSW,238,0.0,0.0,95,0.00,,,0.09,Wunderground v.1.15,2013-01-24 10:38:00,
2013-01-24 02:39:00,37.4,36.1,30.17,WSW,238,0.0,0.0,95,0.00,,,0.09,Wunderground v.1.15,2013-01-24 10:39:00,
2013-01-24 02:41:00,37.4,36.1,30.17,WSW,238,0.0,0.0,95,0.00,,,0.09,Wunderground v.1.15,2013-01-24 10:41:00,
2013-01-24 02:43:00,37.4,36.1,30.17,WSW,238,0.0,0.0,95,0.00,,,0.09,Wunderground v.1.15,2013-01-24 10:43:00,
2013-01-24 02:44:00,37.4,36.1,30.17,WSW,238,0.0,0.0,95,0.00,,,0.09,Wunderground v.1.15,2013-01-24 10:44:00,
2013-01-24 02:47:00,37.3,36.0,30.18,WSW,238,0.0,0.0,95,0.00,,,0.10,Wunderground v.1.15,2013-01-24 10:47:00,
2013-01-24 02:48:00,37.3,36.0,30.18,WSW,238,0.0,0.0,95,0.00,,,0.10,Wunderground v.1.15,2013-01-24 10:48:00,
2013-01-24 02:50:00,37.3,36.0,30.18,WSW,238,0.0,0.0,95,0.00,,,0.10,Wunderground v.1.15,2013-01-24 10:50:00,
2013-01-24 02:54:00,37.3,36.0,30.18,WSW,238,0.0,0.0,95,0.00,,,0.10,Wunderground v.1.15,2013-01-24 10:54:00,
2013-01-24 02:55:00,37.3,36.0,30.18,WSW,238,0.0,0.0,95,0.00,,,0.10,Wunderground v.1.15,2013-01-24 10:55:00,
2013-01-24 02:59:00,37.3,36.0,30.18,WSW,238,0.0,0.0,95,0.00,,,0.10,Wunderground v.1.15,2013-01-24 10:59:00,
2013-01-24 03:00:00,37.3,36.0,30.18,WSW,238,0.0,0.0,95,0.00,,,0.10,Wunderground v.1.15,2013-01-24 11:00:00,
2013-01-24 03:01:00,37.3,36.0,30.18,WSW,238,0.0,0.0,95,0.00,,,0.10,Wunderground v.1.15,2013-01-24 11:01:00,
2013-01-24 03:04:00,37.3,36.0,30.18,WSW,238,0.0,0.0,95,0.00,,,0.10,Wunderground v.1.15,2013-01-24 11:04:00,
2013-01-24 03:05:00,37.3,36.0,30.18,WSW,238,0.0,0.0,95,0.00,,,0.10,Wunderground v.1.15,2013-01-24 11:05:00,
2013-01-24 03:07:00,37.3,36.0,30.18,WSW,238,0.0,0.0,95,0.00,,,0.10,Wunderground v.1.15,2013-01-24 11:07:00,
2013-01-24 03:10:00,37.3,36.0,30.18,WSW,238,0.0,0.0,95,0.00,,,0.10,Wunderground v.1.15,2013-01-24 11:10:00,
2013-01-24 03:12:00,37.3,36.0,30.18,WSW,238,0.0,0.0,95,0.00,,,0.10,Wunderground v.1.15,2013-01-24 11:12:00,
2013-01-24 03:13:00,37.3,36.0,30.18,WSW,238,0.0,0.0,95,0.00,,,0.10,Wunderground v.1.15,2013-01-24 11:13:00,
2013-01-24 03:15:00,37.3,36.0,30.18,WSW,238,0.0,0.0,95,0.00,,,0.10,Wunderground v.1.15,2013-01-24 11:15:00,
2013-01-24 03:17:00,37.3,36.0,30.18,WSW,238,0.0,0.0,95,0.00,,,0.10,Wunderground v.1.15,2013-01-24 11:17:00,
2013-01-24 03:18:00,37.3,36.0,30.18,WSW,238,0.0,0.0,95,0.00,,,0.10,Wunderground v.1.15,2013-01-24 11:18:00,
2013-01-24 03:20:00,37.3,36.0,30.18,WSW,238,0.0,0.0,95,0.00,,,0.10,Wunderground v.1.15,2013-01-24 11:20:00,
2013-01-24 03:21:00,37.3,36.0,30.18,WSW,238,0.0,0.0,95,0.00,,,0.10,Wunderground v.1.15,2013-01-24 11:21:00,
2013-01-24 03:22:00,37.3,36.0,30.18,WSW,238,0.0,0.0,95,0.00,,,0.11,Wunderground v.1.15,2013-01-24 11:22:00,
2013-01-24 03:24:00,37.3,36.0,30.18,WSW,238,0.0,0.0,95,0.00,,,0.11,Wunderground v.1.15,2013-01-24 11:24:00,
2013-01-24 03:26:00,37.3,36.0,30.18,WSW,238,0.0,0.0,95,0.00,,,0.11,Wunderground v.1.15,2013-01-24 11:26:00,
2013-01-24 03:28:00,37.3,36.0,30.18,WSW,238,0.0,0.0,95,0.00,,,0.11,Wunderground v.1.15,2013-01-24 11:28:00,
2013-01-24 03:29:00,37.3,36.0,30.18,WSW,238,0.0,0.0,95,0.00,,,0.11,Wunderground v.1.15,2013-01-24 11:29:00,
2013-01-24 03:32:00,37.3,36.0,30.18,WSW,238,0.0,0.0,95,0.00,,,0.11,Wunderground v.1.15,2013-01-24 11:32:00,
2013-01-24 03:34:00,37.1,35.8,30.18,WSW,238,0.0,0.0,95,0.00,,,0.11,Wunderground v.1.15,2013-01-24 11:34:00,
2013-01-24 03:37:00,37.1,35.8,30.18,WSW,238,0.0,0.0,95,0.00,,,0.11,Wunderground v.1.15,2013-01-24 11:37:00,
2013-01-24 03:38:00,37.1,35.8,30.18,WSW,238,0.0,0.0,95,0.00,,,0.11,Wunderground v.1.15,2013-01-24 11:38:00,
2013-01-24 03:39:00,37.1,35.8,30.18,WSW,238,0.0,0.0,95,0.00,,,0.11,Wunderground v.1.15,2013-01-24 11:39:00,
2013-01-24 03:40:00,37.1,35.8,30.18,WSW,238,0.0,0.0,95,0.00,,,0.11,Wunderground v.1.15,2013-01-24 11:40:00,
2013-01-24 03:42:00,37.1,35.8,30.18,WSW,238,0.0,0.0,95,0.00,,,0.11,Wunderground v.1.15,2013-01-24 11:42:00,
2013-01-24 03:43:00,37.1,35.8,30.18,WSW,238,0.0,0.0,95,0.00,,,0.11,Wunderground v.1.15,2013-01-24 11:43:00,
2013-01-24 03:44:00,37.1,35.8,30.18,WSW,238,0.0,0.0,95,0.00,,,0.11,Wunderground v.1.15,2013-01-24 11:44:00,
2013-01-24 03:45:00,37.1,35.8,30.18,WSW,238,0.0,0.0,95,0.00,,,0.11,Wunderground v.1.15,2013-01-24 11:45:00,
2013-01-24 03:48:00,37.0,35.7,30.18,WSW,238,0.0,0.0,95,0.00,,,0.11,Wunderground v.1.15,2013-01-24 11:48:00,
2013-01-24 03:50:00,37.0,35.7,30.18,WSW,238,0.0,0.0,95,0.00,,,0.11,Wunderground v.1.15,2013-01-24 11:50:00,
2013-01-24 03:51:00,37.0,35.7,30.18,WSW,238,0.0,0.0,95,0.00,,,0.11,Wunderground v.1.15,2013-01-24 11:51:00,
2013-01-24 03:53:00,37.0,35.7,30.18,WSW,238,0.0,0.0,95,0.00,,,0.11,Wunderground v.1.15,2013-01-24 11:53:00,
2013-01-24 03:55:00,37.0,35.7,30.18,WSW,238,0.0,0.0,95,0.00,,,0.11,Wunderground v.1.15,2013-01-24 11:55:00,
2013-01-24 03:56:00,37.0,35.7,30.18,WSW,238,0.0,0.0,95,0.00,,,0.11,Wunderground v.1.15,2013-01-24 11:56:00,
2013-01-24 03:57:00,37.0,35.7,30.18,WSW,238,0.0,0.0,95,0.00,,,0.11,Wunderground v.1.15,2013-01-24 11:57:00,
2013-01-24 03:58:00,37.0,35.7,30.18,WSW,238,0.0,0.0,95,0.00,,,0.11,Wunderground v.1.15,2013-01-24 11:58:00,
2013-01-24 04:01:00,37.0,35.7,30.18,WSW,238,0.0,0.0,95,0.00,,,0.11,Wunderground v.1.15,2013-01-24 12:01:00,
2013-01-24 04:03:00,37.0,35.7,30.18,WSW,238,0.0,0.0,95,0.00,,,0.11,Wunderground v.1.15,2013-01-24 12:03:00,
2013-01-24 04:06:00,37.0,35.7,30.18,WSW,238,0.0,0.0,95,0.00,,,0.11,Wunderground v.1.15,2013-01-24 12:06:00,
2013-01-24 04:08:00,37.0,35.7,30.18,WSW,238,0.0,0.0,95,0.00,,,0.11,Wunderground v.1.15,2013-01-24 12:08:00,
2013-01-24 04:09:00,37.0,35.7,30.18,WSW,238,0.0,0.0,95,0.00,,,0.11,Wunderground v.1.15,2013-01-24 12:09:00,
2013-01-24 04:11:00,37.0,35.7,30.18,WSW,238,0.0,0.0,95,0.00,,,0.11,Wunderground v.1.15,2013-01-24 12:11:00,
2013-01-24 04:13:00,36.8,35.5,30.18,WSW,238,0.0,0.0,95,0.00,,,0.11,Wunderground v.1.15,2013-01-24 12:13:00,
2013-01-24 04:14:00,36.8,35.5,30.18,WSW,238,0.0,0.0,95,0.00,,,0.11,Wunderground v.1.15,2013-01-24 12:14:00,
2013-01-24 04:16:00,36.8,35.5,30.18,WSW,238,0.0,0.0,95,0.00,,,0.11,Wunderground v.1.15,2013-01-24 12:16:00,
2013-01-24 04:18:00,36.8,35.5,30.18,WSW,238,0.0,0.0,95,0.00,,,0.11,Wunderground v.1.15,2013-01-24 12:18:00,
2013-01-24 04:19:00,36.8,35.5,30.18,WSW,238,0.0,0.0,95,0.00,,,0.11,Wunderground v.1.15,2013-01-24 12:19:00,
2013-01-24 04:22:00,36.8,35.5,30.18,WSW,238,0.0,0.0,95,0.00,,,0.11,Wunderground v.1.15,2013-01-24 12:22:00,
2013-01-24 04:23:00,36.8,35.5,30.18,WSW,238,0.0,0.0,95,0.00,,,0.11,Wunderground v.1.15,2013-01-24 12:23:00,
2013-01-24 04:24:00,36.8,35.5,30.18,WSW,238,0.0,0.0,95,0.00,,,0.11,Wunderground v.1.15,2013-01-24 12:24:00,
2013-01-24 04:28:00,36.7,35.4,30.18,WSW,238,0.0,0.0,95,0.00,,,0.11,Wunderground v.1.15,2013-01-24 12:28:00,
2013-01-24 04:29:00,36.7,35.4,30.18,WSW,238,0.0,0.0,95,0.00,,,0.11,Wunderground v.1.15,2013-01-24 12:29:00,
2013-01-24 04:30:00,36.7,35.4,30.18,WSW,238,0.0,0.0,95,0.00,,,0.11,Wunderground v.1.15,2013-01-24 12:30:00,
2013-01-24 04:33:00,36.7,35.4,30.17,WSW,238,0.0,0.0,95,0.00,,,0.11,Wunderground v.1.15,2013-01-24 12:33:00,
2013-01-24 04:34:00,36.7,35.4,30.17,WSW,238,0.0,0.0,95,0.00,,,0.11,Wunderground v.1.15,2013-01-24 12:34:00,
2013-01-24 04:35:00,36.5,35.2,30.17,WSW,238,0.0,0.0,95,0.00,,,0.11,Wunderground v.1.15,2013-01-24 12:35:00,
2013-01-24 04:38:00,36.5,35.2,30.17,WSW,238,0.0,0.0,95,0.00,,,0.12,Wunderground v.1.15,2013-01-24 12:38:00,
2013-01-24 04:39:00,36.5,35.2,30.17,WSW,238,0.0,0.0,95,0.00,,,0.12,Wunderground v.1.15,2013-01-24 12:39:00,
2013-01-24 04:41:00,36.5,35.2,30.17,WSW,238,0.0,0.0,95,0.00,,,0.12,Wunderground v.1.15,2013-01-24 12:41:00,
2013-01-24 04:44:00,36.5,35.2,30.17,WSW,238,0.0,0.0,95,0.00,,,0.12,Wunderground v.1.15,2013-01-24 12:44:00,
2013-01-24 04:45:00,36.5,35.2,30.17,WSW,238,0.0,0.0,95,0.00,,,0.12,Wunderground v.1.15,2013-01-24 12:45:00,
2013-01-24 04:46:00,36.5,35.2,30.17,WSW,238,0.0,0.0,95,0.00,,,0.12,Wunderground v.1.15,2013-01-24 12:46:00,
2013-01-24 04:49:00,36.7,35.4,30.17,WSW,238,0.0,0.0,95,0.00,,,0.12,Wunderground v.1.15,2013-01-24 12:49:00,
2013-01-24 04:50:00,36.7,35.4,30.17,WSW,238,0.0,0.0,95,0.00,,,0.12,Wunderground v.1.15,2013-01-24 12:50:00,
2013-01-24 04:51:00,36.7,35.4,30.17,WSW,238,0.0,0.0,95,0.00,,,0.12,Wunderground v.1.15,2013-01-24 12:51:00,
2013-01-24 04:54:00,36.7,35.4,30.17,WSW,238,0.0,0.0,95,0.00,,,0.12,Wunderground v.1.15,2013-01-24 12:54:00,
2013-01-24 04:55:00,36.7,35.4,30.17,WSW,238,0.0,0.0,95,0.00,,,0.12,Wunderground v.1.15,2013-01-24 12:55:00,
2013-01-24 04:56:00,36.7,35.4,30.17,WSW,238,0.0,0.0,95,0.00,,,0.12,Wunderground v.1.15,2013-01-24 12:56:00,
2013-01-24 04:59:00,36.5,35.2,30.17,WSW,238,0.0,0.0,95,0.00,,,0.13,Wunderground v.1.15,2013-01-24 12:59:00,
2013-01-24 05:00:00,36.5,35.2,30.17,WSW,238,0.0,0.0,95,0.00,,,0.13,Wunderground v.1.15,2013-01-24 13:00:00,
2013-01-24 05:01:00,36.5,35.2,30.17,WSW,238,0.0,0.0,95,0.00,,,0.13,Wunderground v.1.15,2013-01-24 13:01:00,
2013-01-24 05:05:00,36.5,35.2,30.17,WSW,238,0.0,0.0,95,0.00,,,0.13,Wunderground v.1.15,2013-01-24 13:05:00,
2013-01-24 05:06:00,36.5,35.2,30.17,WSW,238,0.0,0.0,95,0.00,,,0.13,Wunderground v.1.15,2013-01-24 13:06:00,
2013-01-24 05:07:00,36.5,35.2,30.17,WSW,238,0.0,0.0,95,0.00,,,0.13,Wunderground v.1.15,2013-01-24 13:07:00,
2013-01-24 05:11:00,36.5,35.2,30.17,WSW,238,0.0,0.0,95,0.00,,,0.13,Wunderground v.1.15,2013-01-24 13:11:00,
2013-01-24 05:12:00,36.5,35.2,30.17,WSW,238,0.0,0.0,95,0.00,,,0.13,Wunderground v.1.15,2013-01-24 13:12:00,
2013-01-24 05:16:00,36.5,35.2,30.18,WSW,238,0.0,0.0,95,0.00,,,0.13,Wunderground v.1.15,2013-01-24 13:16:00,
2013-01-24 05:17:00,36.5,35.2,30.18,WSW,238,0.0,0.0,95,0.00,,,0.13,Wunderground v.1.15,2013-01-24 13:17:00,
2013-01-24 05:18:00,36.5,35.2,30.18,WSW,238,0.0,0.0,95,0.00,,,0.13,Wunderground v.1.15,2013-01-24 13:18:00,
2013-01-24 05:22:00,36.5,35.2,30.18,WSW,238,0.0,0.0,95,0.00,,,0.13,Wunderground v.1.15,2013-01-24 13:22:00,
2013-01-24 05:23:00,36.5,35.2,30.18,WSW,238,0.0,0.0,95,0.00,,,0.13,Wunderground v.1.15,2013-01-24 13:23:00,
2013-01-24 05:27:00,36.4,35.1,30.18,WSW,238,0.0,0.0,95,0.00,,,0.13,Wunderground v.1.15,2013-01-24 13:27:00,
2013-01-24 05:28:00,36.4,35.1,30.18,WSW,238,0.0,0.0,95,0.00,,,0.13,Wunderground v.1.15,2013-01-24 13:28:00,
2013-01-24 05:29:00,36.4,35.1,30.18,WSW,238,0.0,0.0,95,0.00,,,0.13,Wunderground v.1.15,2013-01-24 13:29:00,
2013-01-24 05:32:00,36.4,35.1,30.18,WSW,238,0.0,0.0,95,0.00,,,0.13,Wunderground v.1.15,2013-01-24 13:32:00,
2013-01-24 05:33:00,36.4,35.1,30.18,WSW,238,0.0,0.0,95,0.00,,,0.13,Wunderground v.1.15,2013-01-24 13:33:00,
2013-01-24 05:34:00,36.4,35.1,30.18,WSW,238,0.0,0.0,95,0.00,,,0.13,Wunderground v.1.15,2013-01-24 13:34:00,
2013-01-24 05:37:00,36.4,35.1,30.18,WSW,238,0.0,0.0,95,0.00,,,0.13,Wunderground v.1.15,2013-01-24 13:37:00,
2013-01-24 05:39:00,36.3,35.0,30.18,WSW,238,0.0,0.0,95,0.00,,,0.13,Wunderground v.1.15,2013-01-24 13:39:00,
2013-01-24 05:42:00,36.3,35.0,30.18,WSW,238,0.0,0.0,95,0.00,,,0.13,Wunderground v.1.15,2013-01-24 13:42:00,
2013-01-24 05:44:00,36.3,35.0,30.18,WSW,238,0.0,0.0,95,0.00,,,0.13,Wunderground v.1.15,2013-01-24 13:44:00,
2013-01-24 05:46:00,36.3,35.0,30.18,WSW,238,0.0,0.0,95,0.00,,,0.13,Wunderground v.1.15,2013-01-24 13:46:00,
2013-01-24 05:48:00,36.3,35.0,30.18,WSW,238,0.0,0.0,95,0.00,,,0.13,Wunderground v.1.15,2013-01-24 13:48:00,
2013-01-24 05:50:00,36.1,34.8,30.18,WSW,238,0.0,0.0,95,0.00,,,0.13,Wunderground v.1.15,2013-01-24 13:50:00,
2013-01-24 05:51:00,36.1,34.8,30.18,WSW,238,0.0,0.0,95,0.00,,,0.13,Wunderground v.1.15,2013-01-24 13:51:00,
2013-01-24 05:54:00,36.1,34.8,30.18,WSW,238,0.0,0.0,95,0.00,,,0.13,Wunderground v.1.15,2013-01-24 13:54:00,
2013-01-24 05:56:00,36.1,34.8,30.18,WSW,238,0.0,0.0,95,0.00,,,0.13,Wunderground v.1.15,2013-01-24 13:56:00,
2013-01-24 05:59:00,36.0,34.7,30.18,WSW,238,0.0,0.0,95,0.00,,,0.13,Wunderground v.1.15,2013-01-24 13:59:00,
2013-01-24 06:00:00,36.0,34.7,30.18,WSW,238,0.0,0.0,95,0.00,,,0.13,Wunderground v.1.15,2013-01-24 14:00:00,
2013-01-24 06:01:00,36.0,34.7,30.20,WSW,238,0.0,0.0,95,0.00,,,0.13,Wunderground v.1.15,2013-01-24 14:01:00,
2013-01-24 06:02:00,36.0,34.7,30.20,WSW,238,0.0,0.0,95,0.00,,,0.13,Wunderground v.1.15,2013-01-24 14:02:00,
2013-01-24 06:05:00,35.8,34.5,30.20,WSW,238,0.0,0.0,95,0.00,,,0.14,Wunderground v.1.15,2013-01-24 14:05:00,
2013-01-24 06:06:00,35.8,34.5,30.20,WSW,238,0.0,0.0,95,0.00,,,0.14,Wunderground v.1.15,2013-01-24 14:06:00,
2013-01-24 06:08:00,35.8,34.5,30.20,WSW,238,0.0,0.0,95,0.00,,,0.14,Wunderground v.1.15,2013-01-24 14:08:00,
2013-01-24 06:11:00,35.7,34.4,30.20,WSW,238,0.0,0.0,95,0.00,,,0.14,Wunderground v.1.15,2013-01-24 14:11:00,
2013-01-24 06:12:00,35.7,34.4,30.20,WSW,238,0.0,0.0,95,0.00,,,0.14,Wunderground v.1.15,2013-01-24 14:12:00,
2013-01-24 06:13:00,35.7,34.4,30.20,WSW,238,0.0,0.0,95,0.00,,,0.14,Wunderground v.1.15,2013-01-24 14:13:00,
2013-01-24 06:16:00,35.5,34.2,30.20,WSW,238,0.0,0.0,95,0.00,,,0.14,Wunderground v.1.15,2013-01-24 14:16:00,
2013-01-24 06:17:00,35.5,34.2,30.20,WSW,238,0.0,0.0,95,0.00,,,0.14,Wunderground v.1.15,2013-01-24 14:17:00,
2013-01-24 06:18:00,35.5,34.2,30.20,WSW,238,0.0,0.0,95,0.00,,,0.14,Wunderground v.1.15,2013-01-24 14:18:00,
2013-01-24 06:21:00,35.5,34.2,30.20,WSW,238,0.0,0.0,95,0.00,,,0.14,Wunderground v.1.15,2013-01-24 14:21:00,
2013-01-24 06:22:00,35.5,34.2,30.20,WSW,238,0.0,0.0,95,0.00,,,0.14,Wunderground v.1.15,2013-01-24 14:22:00,
2013-01-24 06:23:00,35.5,34.2,30.20,WSW,238,0.0,0.0,95,0.00,,,0.14,Wunderground v.1.15,2013-01-24 14:23:00,
2013-01-24 06:26:00,35.5,34.2,30.20,WSW,238,0.0,0.0,95,0.00,,,0.14,Wunderground v.1.15,2013-01-24 14:26:00,
2013-01-24 06:27:00,35.5,34.2,30.20,WSW,238,0.0,0.0,95,0.00,,,0.14,Wunderground v.1.15,2013-01-24 14:27:00,
2013-01-24 06:29:00,35.5,34.2,30.20,WSW,238,0.0,0.0,95,0.00,,,0.14,Wunderground v.1.15,2013-01-24 14:29:00,
2013-01-24 06:32:00,35.7,34.4,30.20,WSW,238,0.0,0.0,95,0.00,,,0.14,Wunderground v.1.15,2013-01-24 14:32:00,
2013-01-24 06:34:00,35.8,34.5,30.20,WSW,238,0.0,0.0,95,0.00,,,0.14,Wunderground v.1.15,2013-01-24 14:34:00,
2013-01-24 06:37:00,35.8,34.5,30.20,WSW,238,0.0,0.0,95,0.00,,,0.14,Wunderground v.1.15,2013-01-24 14:37:00,
2013-01-24 06:38:00,35.8,34.5,30.20,WSW,238,0.0,0.0,95,0.00,,,0.14,Wunderground v.1.15,2013-01-24 14:38:00,
2013-01-24 06:39:00,35.8,34.5,30.20,WSW,238,0.0,0.0,95,0.00,,,0.14,Wunderground v.1.15,2013-01-24 14:39:00,
2013-01-24 06:41:00,36.0,34.7,30.20,WSW,238,0.0,0.0,95,0.00,,,0.14,Wunderground v.1.15,2013-01-24 14:41:00,
2013-01-24 06:42:00,36.0,34.7,30.20,WSW,238,0.0,0.0,95,0.00,,,0.14,Wunderground v.1.15,2013-01-24 14:42:00,
2013-01-24 06:44:00,36.0,34.7,30.20,WSW,238,0.0,0.0,95,0.00,,,0.14,Wunderground v.1.15,2013-01-24 14:44:00,
2013-01-24 06:47:00,36.0,34.7,30.19,WSW,238,0.0,0.0,95,0.00,,,0.14,Wunderground v.1.15,2013-01-24 14:47:00,
2013-01-24 06:48:00,36.1,34.8,30.19,WSW,238,0.0,0.0,95,0.00,,,0.14,Wunderground v.1.15,2013-01-24 14:48:00,
2013-01-24 06:49:00,36.1,34.8,30.19,WSW,238,0.0,0.0,95,0.00,,,0.14,Wunderground v.1.15,2013-01-24 14:49:00,
2013-01-24 06:50:00,36.1,34.8,30.19,WSW,238,0.0,0.0,95,0.00,,,0.14,Wunderground v.1.15,2013-01-24 14:50:00,
2013-01-24 06:52:00,36.0,34.7,30.19,WSW,238,0.0,0.0,95,0.00,,,0.14,Wunderground v.1.15,2013-01-24 14:52:00,
2013-01-24 06:53:00,36.0,34.7,30.19,WSW,238,0.0,0.0,95,0.00,,,0.14,Wunderground v.1.15,2013-01-24 14:53:00,
2013-01-24 06:54:00,36.0,34.7,30.19,WSW,238,0.0,0.0,95,0.00,,,0.14,Wunderground v.1.15,2013-01-24 14:54:00,
2013-01-24 06:55:00,36.0,34.7,30.19,WSW,238,0.0,0.0,95,0.00,,,0.14,Wunderground v.1.15,2013-01-24 14:55:00,
2013-01-24 06:57:00,36.0,34.7,30.19,WSW,238,0.0,0.0,95,0.00,,,0.14,Wunderground v.1.15,2013-01-24 14:57:00,
2013-01-24 06:58:00,36.0,34.7,30.19,WSW,238,0.0,0.0,95,0.00,,,0.14,Wunderground v.1.15,2013-01-24 14:58:00,
2013-01-24 07:00:00,36.0,34.7,30.19,WSW,238,0.0,0.0,95,0.00,,,0.14,Wunderground v.1.15,2013-01-24 15:00:00,
2013-01-24 07:01:00,36.0,34.7,30.18,WSW,238,0.0,0.0,95,0.00,,,0.14,Wunderground v.1.15,2013-01-24 15:01:00,
2013-01-24 07:03:00,36.0,34.7,30.18,WSW,238,0.0,0.0,95,0.00,,,0.14,Wunderground v.1.15,2013-01-24 15:03:00,
2013-01-24 07:04:00,36.0,34.7,30.18,WSW,238,0.0,0.0,95,0.00,,,0.14,Wunderground v.1.15,2013-01-24 15:04:00,
2013-01-24 07:05:00,36.0,34.7,30.18,WSW,238,0.0,0.0,95,0.00,,,0.14,Wunderground v.1.15,2013-01-24 15:05:00,
2013-01-24 07:06:00,36.0,34.7,30.18,WSW,238,0.0,0.0,95,0.00,,,0.14,Wunderground v.1.15,2013-01-24 15:06:00,
2013-01-24 07:08:00,36.0,34.7,30.18,WSW,238,0.0,0.0,95,0.00,,,0.14,Wunderground v.1.15,2013-01-24 15:08:00,
2013-01-24 07:10:00,36.0,34.7,30.18,WSW,238,0.0,0.0,95,0.00,,,0.14,Wunderground v.1.15,2013-01-24 15:10:00,
2013-01-24 07:11:00,36.0,34.7,30.18,WSW,238,0.0,0.0,95,0.00,,,0.14,Wunderground v.1.15,2013-01-24 15:11:00,
2013-01-24 07:12:00,36.0,34.7,30.18,WSW,238,0.0,0.0,95,0.00,,,0.14,Wunderground v.1.15,2013-01-24 15:12:00,
2013-01-24 07:13:00,36.0,34.7,30.18,WSW,238,0.0,0.0,95,0.00,,,0.14,Wunderground v.1.15,2013-01-24 15:13:00,
2013-01-24 07:15:00,36.0,34.7,30.18,WSW,238,0.0,0.0,95,0.00,,,0.14,Wunderground v.1.15,2013-01-24 15:15:00,
2013-01-24 07:16:00,36.0,34.7,30.18,WSW,238,0.0,0.0,95,0.00,,,0.14,Wunderground v.1.15,2013-01-24 15:16:00,
2013-01-24 07:18:00,36.0,34.7,30.18,WSW,238,0.0,0.0,95,0.00,,,0.14,Wunderground v.1.15,2013-01-24 15:18:00,
2013-01-24 07:21:00,36.0,34.7,30.18,WSW,238,0.0,0.0,95,0.00,,,0.14,Wunderground v.1.15,2013-01-24 15:21:00,
2013-01-24 07:23:00,36.0,34.7,30.18,WSW,238,0.0,0.0,95,0.00,,,0.14,Wunderground v.1.15,2013-01-24 15:23:00,
2013-01-24 07:27:00,36.0,34.7,30.18,WSW,238,0.0,0.0,95,0.00,,,0.14,Wunderground v.1.15,2013-01-24 15:27:00,
2013-01-24 07:28:00,36.1,34.8,30.18,WSW,238,0.0,0.0,95,0.00,,,0.14,Wunderground v.1.15,2013-01-24 15:28:00,
2013-01-24 07:29:00,36.1,34.8,30.18,WSW,238,0.0,0.0,95,0.00,,,0.14,Wunderground v.1.15,2013-01-24 15:29:00,
2013-01-24 07:33:00,36.1,34.8,30.18,WSW,238,0.0,0.0,95,0.00,,,0.14,Wunderground v.1.15,2013-01-24 15:33:00,
2013-01-24 07:34:00,36.1,34.8,30.18,WSW,238,0.0,0.0,95,0.00,,,0.14,Wunderground v.1.15,2013-01-24 15:34:00,
2013-01-24 07:38:00,36.1,34.8,30.18,WSW,238,0.0,0.0,95,0.00,,,0.14,Wunderground v.1.15,2013-01-24 15:38:00,
2013-01-24 07:39:00,36.1,34.8,30.18,WSW,238,0.0,0.0,95,0.00,,,0.14,Wunderground v.1.15,2013-01-24 15:39:00,
2013-01-24 07:40:00,36.1,34.8,30.18,WSW,238,0.0,0.0,95,0.00,,,0.14,Wunderground v.1.15,2013-01-24 15:40:00,
2013-01-24 07:44:00,36.0,34.7,30.18,WSW,238,0.0,0.0,95,0.00,,,0.14,Wunderground v.1.15,2013-01-24 15:44:00,
2013-01-24 07:45:00,36.0,34.7,30.18,WSW,238,0.0,0.0,95,0.00,,,0.14,Wunderground v.1.15,2013-01-24 15:45:00,
2013-01-24 07:50:00,36.0,34.7,30.18,WSW,238,0.0,0.0,95,0.00,,,0.14,Wunderground v.1.15,2013-01-24 15:50:00,
2013-01-24 07:51:00,36.0,34.7,30.18,WSW,238,0.0,0.0,95,0.00,,,0.14,Wunderground v.1.15,2013-01-24 15:51:00,
2013-01-24 07:52:00,35.8,34.5,30.18,WSW,238,0.0,0.0,95,0.00,,,0.14,Wunderground v.1.15,2013-01-24 15:52:00,
2013-01-24 07:55:00,35.8,34.5,30.18,WSW,238,0.0,0.0,95,0.00,,,0.14,Wunderground v.1.15,2013-01-24 15:55:00,
2013-01-24 07:56:00,35.8,34.5,30.18,WSW,238,0.0,0.0,95,0.00,,,0.14,Wunderground v.1.15,2013-01-24 15:56:00,
2013-01-24 07:57:00,35.8,34.5,30.18,WSW,238,0.0,0.0,95,0.00,,,0.14,Wunderground v.1.15,2013-01-24 15:57:00,
2013-01-24 08:00:00,35.8,34.5,30.18,WSW,238,0.0,0.0,95,0.00,,,0.14,Wunderground v.1.15,2013-01-24 16:00:00,
2013-01-24 08:02:00,35.8,34.5,30.18,WSW,238,0.0,0.0,95,0.00,,,0.14,Wunderground v.1.15,2013-01-24 16:02:00,
2013-01-24 08:05:00,35.7,34.4,30.18,WSW,238,0.0,0.0,95,0.00,,,0.14,Wunderground v.1.15,2013-01-24 16:05:00,
2013-01-24 08:07:00,35.7,34.4,30.18,WSW,238,0.0,0.0,95,0.00,,,0.14,Wunderground v.1.15,2013-01-24 16:07:00,
2013-01-24 08:08:00,35.7,34.4,30.18,WSW,238,0.0,0.0,95,0.00,,,0.14,Wunderground v.1.15,2013-01-24 16:08:00,
2013-01-24 08:11:00,35.5,34.2,30.18,WSW,238,0.0,0.0,95,0.00,,,0.14,Wunderground v.1.15,2013-01-24 16:11:00,
2013-01-24 08:13:00,35.5,34.2,30.18,WSW,238,0.0,0.0,95,0.00,,,0.14,Wunderground v.1.15,2013-01-24 16:13:00,
2013-01-24 08:16:00,35.5,34.2,30.18,WSW,238,0.0,0.0,95,0.00,,,0.14,Wunderground v.1.15,2013-01-24 16:16:00,
2013-01-24 08:18:00,35.5,34.2,30.18,WSW,238,0.0,0.0,95,0.00,,,0.14,Wunderground v.1.15,2013-01-24 16:18:00,
2013-01-24 08:19:00,35.5,34.2,30.18,WSW,238,0.0,0.0,95,0.00,,,0.14,Wunderground v.1.15,2013-01-24 16:19:00,
2013-01-24 08:21:00,35.4,34.1,30.18,WSW,238,0.0,0.0,95,0.00,,,0.14,Wunderground v.1.15,2013-01-24 16:21:00,
2013-01-24 08:24:00,35.4,34.1,30.18,WSW,238,0.0,0.0,95,0.00,,,0.14,Wunderground v.1.15,2013-01-24 16:24:00,
2013-01-24 08:26:00,35.4,34.1,30.18,WSW,238,0.0,0.0,95,0.00,,,0.14,Wunderground v.1.15,2013-01-24 16:26:00,
2013-01-24 08:29:00,35.2,33.9,30.18,WSW,238,0.0,0.0,95,0.00,,,0.14,Wunderground v.1.15,2013-01-24 16:29:00,
2013-01-24 08:30:00,35.2,33.9,30.18,WSW,238,0.0,0.0,95,0.00,,,0.14,Wunderground v.1.15,2013-01-24 16:30:00,
2013-01-24 08:31:00,35.2,33.9,30.17,WSW,238,0.0,0.0,95,0.00,,,0.14,Wunderground v.1.15,2013-01-24 16:31:00,
2013-01-24 08:34:00,35.2,33.9,30.17,WSW,238,0.0,0.0,95,0.00,,,0.14,Wunderground v.1.15,2013-01-24 16:34:00,
2013-01-24 08:35:00,35.2,33.9,30.17,WSW,238,0.0,0.0,95,0.00,,,0.14,Wunderground v.1.15,2013-01-24 16:35:00,
2013-01-24 08:37:00,35.2,33.9,30.17,WSW,238,0.0,0.0,95,0.00,,,0.14,Wunderground v.1.15,2013-01-24 16:37:00,
2013-01-24 08:40:00,35.1,33.8,30.17,WSW,238,0.0,0.0,95,0.00,,,0.14,Wunderground v.1.15,2013-01-24 16:40:00,
2013-01-24 08:43:00,35.1,33.8,30.17,WSW,238,0.0,0.0,95,0.00,,,0.14,Wunderground v.1.15,2013-01-24 16:43:00,
2013-01-24 08:45:00,35.1,33.8,30.17,WSW,238,0.0,0.0,95,0.00,,,0.14,Wunderground v.1.15,2013-01-24 16:45:00,
2013-01-24 08:48:00,34.9,33.6,30.16,WSW,238,0.0,0.0,95,0.00,,,0.14,Wunderground v.1.15,2013-01-24 16:48:00,
2013-01-24 08:50:00,34.9,33.6,30.16,WSW,238,0.0,0.0,95,0.00,,,0.14,Wunderground v.1.15,2013-01-24 16:50:00,
2013-01-24 08:51:00,34.9,33.6,30.16,WSW,238,0.0,0.0,95,0.00,,,0.14,Wunderground v.1.15,2013-01-24 16:51:00,
2013-01-24 08:54:00,35.1,33.8,30.16,WSW,238,0.0,0.0,95,0.00,,,0.14,Wunderground v.1.15,2013-01-24 16:54:00,
2013-01-24 08:55:00,35.1,33.8,30.16,WSW,238,0.0,0.0,95,0.00,,,0.14,Wunderground v.1.15,2013-01-24 16:55:00,
2013-01-24 08:56:00,35.1,33.8,30.16,WSW,238,0.0,0.0,95,0.00,,,0.14,Wunderground v.1.15,2013-01-24 16:56:00,
2013-01-24 09:00:00,35.1,33.8,30.16,WSW,238,0.0,0.0,95,0.00,,,0.14,Wunderground v.1.15,2013-01-24 17:00:00,
2013-01-24 09:01:00,35.1,33.8,30.17,WSW,238,0.0,0.0,95,0.00,,,0.14,Wunderground v.1.15,2013-01-24 17:01:00,
2013-01-24 09:05:00,35.1,33.8,30.17,WSW,238,0.0,0.0,95,0.00,,,0.14,Wunderground v.1.15,2013-01-24 17:05:00,
2013-01-24 09:06:00,35.1,33.8,30.17,WSW,238,0.0,0.0,95,0.00,,,0.14,Wunderground v.1.15,2013-01-24 17:06:00,
2013-01-24 09:07:00,35.2,33.9,30.17,WSW,238,0.0,0.0,95,0.00,,,0.14,Wunderground v.1.15,2013-01-24 17:07:00,
2013-01-24 09:10:00,35.2,33.9,30.17,WSW,238,0.0,0.0,95,0.00,,,0.14,Wunderground v.1.15,2013-01-24 17:10:00,
2013-01-24 09:12:00,35.2,33.9,30.17,WSW,238,0.0,0.0,95,0.00,,,0.14,Wunderground v.1.15,2013-01-24 17:12:00,
2013-01-24 09:13:00,35.2,33.9,30.17,WSW,238,0.0,0.0,95,0.00,,,0.14,Wunderground v.1.15,2013-01-24 17:13:00,
2013-01-24 09:15:00,35.2,33.9,30.17,WSW,238,0.0,0.0,95,0.00,,,0.14,Wunderground v.1.15,2013-01-24 17:15:00,
2013-01-24 09:16:00,35.2,33.9,30.17,WSW,238,0.0,0.0,95,0.00,,,0.14,Wunderground v.1.15,2013-01-24 17:16:00,
2013-01-24 09:18:00,35.2,33.9,30.17,WSW,238,0.0,0.0,95,0.00,,,0.14,Wunderground v.1.15,2013-01-24 17:18:00,
2013-01-24 09:19:00,35.2,33.9,30.17,WSW,238,0.0,0.0,95,0.00,,,0.14,Wunderground v.1.15,2013-01-24 17:19:00,
2013-01-24 09:21:00,35.2,33.9,30.17,WSW,238,0.0,0.0,95,0.00,,,0.14,Wunderground v.1.15,2013-01-24 17:21:00,
2013-01-24 09:23:00,35.2,33.9,30.17,WSW,238,0.0,0.0,95,0.00,,,0.14,Wunderground v.1.15,2013-01-24 17:23:00,
2013-01-24 09:24:00,35.2,33.9,30.17,WSW,238,0.0,0.0,95,0.00,,,0.14,Wunderground v.1.15,2013-01-24 17:24:00,
2013-01-24 09:27:00,35.2,33.9,30.17,WSW,238,0.0,0.0,95,0.00,,,0.14,Wunderground v.1.15,2013-01-24 17:27:00,
2013-01-24 09:28:00,35.2,33.9,30.17,WSW,238,0.0,0.0,95,0.00,,,0.14,Wunderground v.1.15,2013-01-24 17:28:00,
2013-01-24 09:29:00,35.2,33.9,30.17,WSW,238,0.0,0.0,95,0.00,,,0.14,Wunderground v.1.15,2013-01-24 17:29:00,
2013-01-24 09:32:00,35.4,34.1,30.17,WSW,238,0.0,0.0,95,0.00,,,0.14,Wunderground v.1.15,2013-01-24 17:32:00,
2013-01-24 09:33:00,35.4,34.1,30.17,WSW,238,0.0,0.0,95,0.00,,,0.14,Wunderground v.1.15,2013-01-24 17:33:00,
2013-01-24 09:35:00,35.4,34.1,30.17,WSW,238,0.0,0.0,95,0.00,,,0.14,Wunderground v.1.15,2013-01-24 17:35:00,
2013-01-24 09:37:00,35.5,34.2,30.17,WSW,238,0.0,0.0,95,0.00,,,0.14,Wunderground v.1.15,2013-01-24 17:37:00,
2013-01-24 09:39:00,35.5,34.2,30.17,WSW,238,0.0,0.0,95,0.00,,,0.14,Wunderground v.1.15,2013-01-24 17:39:00,
2013-01-24 09:41:00,35.7,34.4,30.17,WSW,238,0.0,0.0,95,0.00,,,0.14,Wunderground v.1.15,2013-01-24 17:41:00,
2013-01-24 09:42:00,35.7,34.4,30.17,WSW,238,0.0,0.0,95,0.00,,,0.14,Wunderground v.1.15,2013-01-24 17:42:00,
2013-01-24 09:44:00,35.8,34.5,30.17,WSW,238,0.0,0.0,95,0.00,,,0.14,Wunderground v.1.15,2013-01-24 17:44:00,
2013-01-24 09:46:00,36.0,34.7,30.17,WSW,238,0.0,0.0,95,0.00,,,0.14,Wunderground v.1.15,2013-01-24 17:46:00,
2013-01-24 09:47:00,36.0,34.7,30.17,WSW,238,0.0,0.0,95,0.00,,,0.14,Wunderground v.1.15,2013-01-24 17:47:00,
2013-01-24 09:50:00,36.1,34.8,30.17,WSW,238,0.0,0.0,95,0.00,,,0.14,Wunderground v.1.15,2013-01-24 17:50:00,
2013-01-24 09:52:00,36.1,34.8,30.17,WSW,238,0.0,0.0,95,0.00,,,0.14,Wunderground v.1.15,2013-01-24 17:52:00,
2013-01-24 09:53:00,36.3,35.0,30.17,WSW,238,0.0,0.0,95,0.00,,,0.14,Wunderground v.1.15,2013-01-24 17:53:00,
2013-01-24 09:56:00,36.3,35.3,30.17,WSW,238,0.0,0.0,96,0.00,,,0.14,Wunderground v.1.15,2013-01-24 17:56:00,
2013-01-24 09:57:00,36.4,35.4,30.17,WSW,238,0.0,0.0,96,0.00,,,0.14,Wunderground v.1.15,2013-01-24 17:57:00,
2013-01-24 09:58:00,36.4,35.1,30.17,WSW,238,0.0,0.0,95,0.00,,,0.14,Wunderground v.1.15,2013-01-24 17:58:00,
2013-01-24 10:01:00,36.7,35.7,30.17,WSW,238,0.0,0.0,96,0.00,,,0.14,Wunderground v.1.15,2013-01-24 18:01:00,
2013-01-24 10:03:00,36.7,35.7,30.17,WSW,238,0.0,0.0,96,0.00,,,0.14,Wunderground v.1.15,2013-01-24 18:03:00,
2013-01-24 10:05:00,36.8,35.8,30.17,WSW,238,0.0,0.0,96,0.00,,,0.14,Wunderground v.1.15,2013-01-24 18:05:00,
2013-01-24 10:06:00,36.8,35.8,30.17,WSW,238,0.0,0.0,96,0.00,,,0.14,Wunderground v.1.15,2013-01-24 18:06:00,
2013-01-24 10:09:00,37.1,36.1,30.17,WSW,238,0.0,0.0,96,0.00,,,0.14,Wunderground v.1.15,2013-01-24 18:09:00,
2013-01-24 10:10:00,37.1,36.1,30.17,WSW,238,0.0,0.0,96,0.00,,,0.14,Wunderground v.1.15,2013-01-24 18:10:00,
2013-01-24 10:11:00,37.1,36.1,30.17,WSW,238,0.0,0.0,96,0.00,,,0.14,Wunderground v.1.15,2013-01-24 18:11:00,
2013-01-24 10:15:00,37.3,36.3,30.17,WSW,238,0.0,0.0,96,0.00,,,0.14,Wunderground v.1.15,2013-01-24 18:15:00,
2013-01-24 10:16:00,37.4,36.4,30.17,WSW,238,0.0,0.0,96,0.00,,,0.14,Wunderground v.1.15,2013-01-24 18:16:00,
2013-01-24 10:17:00,37.4,36.4,30.17,WSW,238,0.0,0.0,96,0.00,,,0.14,Wunderground v.1.15,2013-01-24 18:17:00,
2013-01-24 10:20:00,37.5,36.5,30.17,WSW,238,0.0,0.0,96,0.00,,,0.14,Wunderground v.1.15,2013-01-24 18:20:00,
2013-01-24 10:22:00,37.5,36.5,30.17,WSW,238,0.0,0.0,96,0.00,,,0.14,Wunderground v.1.15,2013-01-24 18:22:00,
2013-01-24 10:26:00,37.8,36.8,30.17,WSW,238,0.0,0.0,96,0.00,,,0.14,Wunderground v.1.15,2013-01-24 18:26:00,
2013-01-24 10:27:00,37.8,36.8,30.17,WSW,238,0.0,0.0,96,0.00,,,0.14,Wunderground v.1.15,2013-01-24 18:27:00,
2013-01-24 10:28:00,38.0,37.0,30.17,WSW,238,0.0,0.0,96,0.00,,,0.14,Wunderground v.1.15,2013-01-24 18:28:00,
2013-01-24 10:31:00,38.1,37.1,30.16,WSW,238,0.0,0.0,96,0.00,,,0.14,Wunderground v.1.15,2013-01-24 18:31:00,
2013-01-24 10:32:00,38.1,37.1,30.16,WSW,238,0.0,0.0,96,0.00,,,0.14,Wunderground v.1.15,2013-01-24 18:32:00,
2013-01-24 10:33:00,38.3,37.3,30.16,WSW,238,0.0,0.0,96,0.00,,,0.14,Wunderground v.1.15,2013-01-24 18:33:00,
2013-01-24 10:34:00,38.3,37.3,30.16,WSW,238,0.0,0.0,96,0.00,,,0.14,Wunderground v.1.15,2013-01-24 18:34:00,
2013-01-24 10:37:00,38.4,37.4,30.16,WSW,238,0.0,0.0,96,0.00,,,0.14,Wunderground v.1.15,2013-01-24 18:37:00,
2013-01-24 10:38:00,38.4,37.4,30.16,WSW,238,0.0,0.0,96,0.00,,,0.14,Wunderground v.1.15,2013-01-24 18:38:00,
2013-01-24 10:39:00,38.5,37.5,30.16,WSW,238,0.0,0.0,96,0.00,,,0.14,Wunderground v.1.15,2013-01-24 18:39:00,
2013-01-24 10:42:00,38.7,37.7,30.16,WSW,238,0.0,0.0,96,0.00,,,0.14,Wunderground v.1.15,2013-01-24 18:42:00,
2013-01-24 10:43:00,38.7,37.7,30.16,WSW,238,0.0,0.0,96,0.00,,,0.14,Wunderground v.1.15,2013-01-24 18:43:00,
2013-01-24 10:44:00,38.7,37.7,30.16,WSW,238,0.0,0.0,96,0.00,,,0.14,Wunderground v.1.15,2013-01-24 18:44:00,
2013-01-24 10:47:00,38.8,37.8,30.15,WSW,238,0.0,0.0,96,0.00,,,0.14,Wunderground v.1.15,2013-01-24 18:47:00,
2013-01-24 10:50:00,39.0,38.0,30.15,NW,323,0.0,0.0,96,0.00,,,0.14,Wunderground v.1.15,2013-01-24 18:50:00,
2013-01-24 10:51:00,39.1,38.1,30.15,NW,323,0.0,0.0,96,0.00,,,0.14,Wunderground v.1.15,2013-01-24 18:51:00,
2013-01-24 10:53:00,39.1,38.1,30.15,NW,323,0.0,0.0,96,0.00,,,0.14,Wunderground v.1.15,2013-01-24 18:53:00,
2013-01-24 10:55:00,39.3,38.3,30.15,NW,323,0.0,0.0,96,0.00,,,0.14,Wunderground v.1.15,2013-01-24 18:55:00,
2013-01-24 10:56:00,39.3,38.3,30.15,NW,323,0.0,0.0,96,0.00,,,0.14,Wunderground v.1.15,2013-01-24 18:56:00,
2013-01-24 10:58:00,39.4,38.4,30.15,NW,323,0.0,0.0,96,0.00,,,0.14,Wunderground v.1.15,2013-01-24 18:58:00,
2013-01-24 11:01:00,39.6,38.6,30.15,NW,323,0.0,0.0,96,0.00,,,0.14,Wunderground v.1.15,2013-01-24 19:01:00,
2013-01-24 11:02:00,39.6,38.6,30.15,NW,323,0.0,0.0,96,0.00,,,0.14,Wunderground v.1.15,2013-01-24 19:02:00,
2013-01-24 11:04:00,39.7,38.7,30.15,NW,323,0.0,0.0,96,0.00,,,0.14,Wunderground v.1.15,2013-01-24 19:04:00,
2013-01-24 11:06:00,39.7,38.7,30.15,NW,323,0.0,0.0,96,0.00,,,0.14,Wunderground v.1.15,2013-01-24 19:06:00,
2013-01-24 11:08:00,39.8,38.8,30.15,NW,323,0.0,0.0,96,0.00,,,0.14,Wunderground v.1.15,2013-01-24 19:08:00,
2013-01-24 11:10:00,39.8,38.8,30.15,NW,323,0.0,0.0,96,0.00,,,0.14,Wunderground v.1.15,2013-01-24 19:10:00,
2013-01-24 11:12:00,40.0,39.0,30.15,NW,323,0.0,0.0,96,0.00,,,0.14,Wunderground v.1.15,2013-01-24 19:12:00,
2013-01-24 11:13:00,40.0,39.0,30.15,NW,323,0.0,0.0,96,0.00,,,0.14,Wunderground v.1.15,2013-01-24 19:13:00,
2013-01-24 11:15:00,40.1,39.1,30.15,NW,323,0.0,0.0,96,0.00,,,0.14,Wunderground v.1.15,2013-01-24 19:15:00,
2013-01-24 11:18:00,40.1,39.1,30.15,NW,323,0.0,0.0,96,0.00,,,0.14,Wunderground v.1.15,2013-01-24 19:18:00,
2013-01-24 11:20:00,40.3,39.3,30.15,NW,323,0.0,0.0,96,0.00,,,0.14,Wunderground v.1.15,2013-01-24 19:20:00,
2013-01-24 11:21:00,40.3,39.3,30.15,NW,323,0.0,0.0,96,0.00,,,0.14,Wunderground v.1.15,2013-01-24 19:21:00,
2013-01-24 11:23:00,40.3,39.3,30.15,NW,323,0.0,0.0,96,0.00,,,0.14,Wunderground v.1.15,2013-01-24 19:23:00,
2013-01-24 11:25:00,40.4,39.4,30.15,NW,323,0.0,0.0,96,0.00,,,0.14,Wunderground v.1.15,2013-01-24 19:25:00,
2013-01-24 11:26:00,40.4,39.4,30.15,NW,323,0.0,0.0,96,0.00,,,0.14,Wunderground v.1.15,2013-01-24 19:26:00,
2013-01-24 11:28:00,40.6,39.5,30.15,NW,323,0.0,0.0,96,0.00,,,0.14,Wunderground v.1.15,2013-01-24 19:28:00,
2013-01-24 11:31:00,40.7,39.6,30.14,NW,323,0.0,0.0,96,0.00,,,0.14,Wunderground v.1.15,2013-01-24 19:31:00,
2013-01-24 11:34:00,40.8,39.7,30.14,NW,323,0.0,0.0,96,0.00,,,0.14,Wunderground v.1.15,2013-01-24 19:34:00,
2013-01-24 11:37:00,40.8,39.7,30.14,NW,323,0.0,0.0,96,0.00,,,0.14,Wunderground v.1.15,2013-01-24 19:37:00,
2013-01-24 11:39:00,41.0,39.9,30.14,NW,323,0.0,0.0,96,0.00,,,0.14,Wunderground v.1.15,2013-01-24 19:39:00,
2013-01-24 11:40:00,41.0,39.9,30.14,NW,323,0.0,0.0,96,0.00,,,0.14,Wunderground v.1.15,2013-01-24 19:40:00,
2013-01-24 11:43:00,41.0,39.9,30.14,NNW,333,0.0,0.0,96,0.00,,,0.14,Wunderground v.1.15,2013-01-24 19:43:00,
2013-01-24 11:44:00,41.0,39.9,30.14,NE,36,1.0,2.0,96,0.00,,,0.14,Wunderground v.1.15,2013-01-24 19:44:00,
2013-01-24 11:46:00,40.8,39.7,30.14,NE,36,0.0,2.0,96,0.00,,,0.14,Wunderground v.1.15,2013-01-24 19:46:00,
2013-01-24 11:49:00,40.7,39.6,30.14,NE,36,0.0,2.0,96,0.00,,,0.14,Wunderground v.1.15,2013-01-24 19:49:00,
2013-01-24 11:50:00,40.7,39.6,30.14,NE,36,0.0,2.0,96,0.00,,,0.14,Wunderground v.1.15,2013-01-24 19:50:00,
2013-01-24 11:52:00,40.7,39.6,30.14,NE,36,0.0,0.0,96,0.00,,,0.14,Wunderground v.1.15,2013-01-24 19:52:00,
2013-01-24 11:54:00,40.7,39.6,30.14,NE,36,0.0,0.0,96,0.00,,,0.14,Wunderground v.1.15,2013-01-24 19:54:00,
2013-01-24 11:56:00,40.7,39.6,30.14,NE,36,0.0,0.0,96,0.00,,,0.14,Wunderground v.1.15,2013-01-24 19:56:00,
2013-01-24 11:57:00,40.7,39.6,30.14,NNE,29,0.0,0.0,96,0.00,,,0.14,Wunderground v.1.15,2013-01-24 19:57:00,
2013-01-24 11:59:00,40.7,39.6,30.14,NNE,29,0.0,0.0,96,0.00,,,0.14,Wunderground v.1.15,2013-01-24 19:59:00,
2013-01-24 12:00:00,40.7,39.6,30.14,NNE,29,0.0,0.0,96,0.00,,,0.14,Wunderground v.1.15,2013-01-24 20:00:00,
2013-01-24 12:02:00,40.7,39.6,30.13,NNE,29,0.0,0.0,96,0.00,,,0.14,Wunderground v.1.15,2013-01-24 20:02:00,
2013-01-24 12:03:00,40.7,39.6,30.13,NNE,29,0.0,0.0,96,0.00,,,0.14,Wunderground v.1.15,2013-01-24 20:03:00,
2013-01-24 12:04:00,40.7,39.6,30.13,NNE,29,0.0,0.0,96,0.00,,,0.14,Wunderground v.1.15,2013-01-24 20:04:00,
2013-01-24 12:07:00,40.7,39.6,30.13,NNE,29,0.0,0.0,96,0.00,,,0.14,Wunderground v.1.15,2013-01-24 20:07:00,
2013-01-24 12:08:00,40.7,39.6,30.13,NNE,29,0.0,0.0,96,0.00,,,0.14,Wunderground v.1.15,2013-01-24 20:08:00,
2013-01-24 12:12:00,40.8,39.7,30.13,NNE,29,0.0,0.0,96,0.00,,,0.14,Wunderground v.1.15,2013-01-24 20:12:00,
2013-01-24 12:13:00,40.8,39.7,30.13,NNE,29,0.0,0.0,96,0.00,,,0.14,Wunderground v.1.15,2013-01-24 20:13:00,
2013-01-24 12:17:00,40.8,39.7,30.12,NNE,29,0.0,0.0,96,0.00,,,0.14,Wunderground v.1.15,2013-01-24 20:17:00,
2013-01-24 12:18:00,40.8,39.7,30.12,NNE,29,0.0,0.0,96,0.00,,,0.14,Wunderground v.1.15,2013-01-24 20:18:00,
2013-01-24 12:19:00,41.0,39.9,30.12,NNE,29,0.0,0.0,96,0.00,,,0.14,Wunderground v.1.15,2013-01-24 20:19:00,
2013-01-24 12:22:00,41.0,39.9,30.12,NNE,29,0.0,0.0,96,0.00,,,0.14,Wunderground v.1.15,2013-01-24 20:22:00,
2013-01-24 12:23:00,41.0,39.9,30.12,NNE,29,0.0,0.0,96,0.00,,,0.14,Wunderground v.1.15,2013-01-24 20:23:00,
2013-01-24 12:24:00,41.0,39.9,30.12,NNE,29,0.0,0.0,96,0.00,,,0.14,Wunderground v.1.15,2013-01-24 20:24:00,
2013-01-24 12:25:00,41.0,39.9,30.12,NNE,29,0.0,0.0,96,0.00,,,0.14,Wunderground v.1.15,2013-01-24 20:25:00,
2013-01-24 12:27:00,41.1,40.0,30.12,NNE,29,0.0,0.0,96,0.00,,,0.14,Wunderground v.1.15,2013-01-24 20:27:00,
2013-01-24 12:28:00,41.1,40.0,30.12,NNE,29,0.0,0.0,96,0.00,,,0.14,Wunderground v.1.15,2013-01-24 20:28:00,
2013-01-24 12:30:00,41.1,40.0,30.12,NNE,29,0.0,0.0,96,0.00,,,0.14,Wunderground v.1.15,2013-01-24 20:30:00,
2013-01-24 12:31:00,41.1,40.0,30.11,NNE,29,0.0,0.0,96,0.00,,,0.14,Wunderground v.1.15,2013-01-24 20:31:00,
2013-01-24 12:32:00,41.3,40.2,30.11,NNE,29,0.0,0.0,96,0.00,,,0.14,Wunderground v.1.15,2013-01-24 20:32:00,
2013-01-24 12:34:00,41.3,40.2,30.11,NNE,29,0.0,0.0,96,0.00,,,0.14,Wunderground v.1.15,2013-01-24 20:34:00,
2013-01-24 12:35:00,41.3,40.2,30.11,NNE,29,0.0,0.0,96,0.00,,,0.14,Wunderground v.1.15,2013-01-24 20:35:00,
2013-01-24 12:36:00,41.3,40.2,30.11,NNE,29,0.0,0.0,96,0.00,,,0.14,Wunderground v.1.15,2013-01-24 20:36:00,
2013-01-24 12:38:00,41.3,40.2,30.11,NNE,29,0.0,0.0,96,0.00,,,0.14,Wunderground v.1.15,2013-01-24 20:38:00,
2013-01-24 12:39:00,41.4,40.3,30.11,NNE,29,0.0,0.0,96,0.00,,,0.14,Wunderground v.1.15,2013-01-24 20:39:00,
2013-01-24 12:41:00,41.4,40.3,30.11,NNE,29,0.0,0.0,96,0.00,,,0.14,Wunderground v.1.15,2013-01-24 20:41:00,
2013-01-24 12:43:00,41.6,40.5,30.11,NNE,29,0.0,0.0,96,0.00,,,0.14,Wunderground v.1.15,2013-01-24 20:43:00,
2013-01-24 12:44:00,41.6,40.5,30.11,NNE,29,0.0,0.0,96,0.00,,,0.14,Wunderground v.1.15,2013-01-24 20:44:00,
2013-01-24 12:46:00,41.6,40.5,30.10,NNE,29,0.0,0.0,96,0.00,,,0.14,Wunderground v.1.15,2013-01-24 20:46:00,
2013-01-24 12:47:00,41.6,40.5,30.10,NNE,29,0.0,0.0,96,0.00,,,0.14,Wunderground v.1.15,2013-01-24 20:47:00,
2013-01-24 12:48:00,41.7,40.6,30.10,NNE,29,0.0,0.0,96,0.00,,,0.14,Wunderground v.1.15,2013-01-24 20:48:00,
2013-01-24 12:50:00,41.7,40.6,30.10,NNE,29,0.0,0.0,96,0.00,,,0.14,Wunderground v.1.15,2013-01-24 20:50:00,
2013-01-24 12:51:00,41.7,40.6,30.10,NNE,29,0.0,0.0,96,0.00,,,0.14,Wunderground v.1.15,2013-01-24 20:51:00,
2013-01-24 12:52:00,41.7,40.6,30.10,NNE,27,1.0,1.0,96,0.00,,,0.14,Wunderground v.1.15,2013-01-24 20:52:00,
2013-01-24 12:55:00,41.7,40.6,30.10,NNE,28,1.0,1.0,96,0.00,,,0.14,Wunderground v.1.15,2013-01-24 20:55:00,
2013-01-24 12:57:00,41.7,40.6,30.10,NNE,28,0.0,1.0,96,0.00,,,0.14,Wunderground v.1.15,2013-01-24 20:57:00,
2013-01-24 12:58:00,41.7,40.6,30.10,NNE,28,0.0,1.0,96,0.00,,,0.14,Wunderground v.1.15,2013-01-24 20:58:00,
2013-01-24 13:00:00,41.7,40.6,30.10,ESE,107,0.0,0.0,96,0.00,,,0.14,Wunderground v.1.15,2013-01-24 21:00:00,
2013-01-24 13:01:00,41.7,40.6,30.09,ESE,107,0.0,0.0,96,0.00,,,0.14,Wunderground v.1.15,2013-01-24 21:01:00,
2013-01-24 13:02:00,41.7,40.6,30.09,ESE,107,0.0,0.0,96,0.00,,,0.14,Wunderground v.1.15,2013-01-24 21:02:00,
2013-01-24 13:03:00,41.7,40.6,30.09,ESE,107,0.0,0.0,96,0.00,,,0.14,Wunderground v.1.15,2013-01-24 21:03:00,
2013-01-24 13:05:00,41.7,40.6,30.09,ESE,107,0.0,0.0,96,0.00,,,0.14,Wunderground v.1.15,2013-01-24 21:05:00,
2013-01-24 13:06:00,41.7,40.6,30.09,ESE,107,0.0,0.0,96,0.00,,,0.14,Wunderground v.1.15,2013-01-24 21:06:00,
2013-01-24 13:07:00,41.7,40.6,30.09,ESE,107,0.0,0.0,96,0.00,,,0.14,Wunderground v.1.15,2013-01-24 21:07:00,
2013-01-24 13:11:00,41.8,40.7,30.09,ESE,107,0.0,0.0,96,0.00,,,0.14,Wunderground v.1.15,2013-01-24 21:11:00,
2013-01-24 13:12:00,41.8,40.7,30.09,ESE,107,0.0,0.0,96,0.00,,,0.14,Wunderground v.1.15,2013-01-24 21:12:00,
2013-01-24 13:16:00,41.8,40.7,30.08,ESE,107,0.0,0.0,96,0.00,,,0.14,Wunderground v.1.15,2013-01-24 21:16:00,
2013-01-24 13:17:00,41.8,40.7,30.08,ESE,107,0.0,0.0,96,0.00,,,0.14,Wunderground v.1.15,2013-01-24 21:17:00,
2013-01-24 13:18:00,41.8,40.7,30.08,ESE,107,0.0,0.0,96,0.00,,,0.14,Wunderground v.1.15,2013-01-24 21:18:00,
2013-01-24 13:21:00,42.0,40.9,30.08,ESE,107,0.0,0.0,96,0.00,,,0.14,Wunderground v.1.15,2013-01-24 21:21:00,
2013-01-24 13:22:00,42.0,40.9,30.08,ESE,107,0.0,0.0,96,0.00,,,0.14,Wunderground v.1.15,2013-01-24 21:22:00,
2013-01-24 13:24:00,42.0,40.9,30.08,ESE,107,0.0,0.0,96,0.00,,,0.14,Wunderground v.1.15,2013-01-24 21:24:00,
2013-01-24 13:27:00,42.0,40.9,30.08,ESE,107,0.0,0.0,96,0.00,,,0.14,Wunderground v.1.15,2013-01-24 21:27:00,
2013-01-24 13:28:00,42.0,40.9,30.08,ESE,107,0.0,0.0,96,0.00,,,0.14,Wunderground v.1.15,2013-01-24 21:28:00,
2013-01-24 13:29:00,42.0,40.9,30.08,ESE,107,0.0,0.0,96,0.00,,,0.14,Wunderground v.1.15,2013-01-24 21:29:00,
2013-01-24 13:30:00,42.0,40.9,30.08,ESE,107,0.0,0.0,96,0.00,,,0.14,Wunderground v.1.15,2013-01-24 21:30:00,
2013-01-24 13:33:00,42.0,40.9,30.08,ESE,107,0.0,0.0,96,0.00,,,0.14,Wunderground v.1.15,2013-01-24 21:33:00,
2013-01-24 13:34:00,42.0,40.9,30.08,ESE,107,0.0,0.0,96,0.00,,,0.14,Wunderground v.1.15,2013-01-24 21:34:00,
2013-01-24 13:36:00,42.0,40.9,30.08,ESE,107,0.0,0.0,96,0.00,,,0.14,Wunderground v.1.15,2013-01-24 21:36:00,
2013-01-24 13:38:00,42.1,40.8,30.08,ESE,107,0.0,0.0,95,0.00,,,0.14,Wunderground v.1.15,2013-01-24 21:38:00,
2013-01-24 13:39:00,42.1,40.8,30.08,ESE,107,0.0,0.0,95,0.00,,,0.14,Wunderground v.1.15,2013-01-24 21:39:00,
2013-01-24 13:41:00,42.1,40.8,30.08,ESE,107,0.0,0.0,95,0.00,,,0.14,Wunderground v.1.15,2013-01-24 21:41:00,
2013-01-24 13:43:00,42.3,41.0,30.08,ESE,107,0.0,0.0,95,0.00,,,0.14,Wunderground v.1.15,2013-01-24 21:43:00,
2013-01-24 13:44:00,42.3,41.0,30.08,ESE,107,0.0,0.0,95,0.00,,,0.14,Wunderground v.1.15,2013-01-24 21:44:00,
2013-01-24 13:46:00,42.3,41.0,30.08,ESE,107,0.0,0.0,95,0.00,,,0.14,Wunderground v.1.15,2013-01-24 21:46:00,
2013-01-24 13:47:00,42.3,41.0,30.08,ESE,107,0.0,0.0,95,0.00,,,0.14,Wunderground v.1.15,2013-01-24 21:47:00,
2013-01-24 13:48:00,42.4,41.1,30.08,ESE,107,0.0,0.0,95,0.00,,,0.14,Wunderground v.1.15,2013-01-24 21:48:00,
2013-01-24 13:50:00,42.4,41.1,30.08,ESE,107,0.0,0.0,95,0.00,,,0.14,Wunderground v.1.15,2013-01-24 21:50:00,
2013-01-24 13:51:00,42.4,41.1,30.08,ESE,107,0.0,0.0,95,0.00,,,0.14,Wunderground v.1.15,2013-01-24 21:51:00,
2013-01-24 13:52:00,42.4,41.1,30.08,ESE,107,0.0,0.0,95,0.00,,,0.14,Wunderground v.1.15,2013-01-24 21:52:00,
2013-01-24 13:53:00,42.3,41.0,30.08,ESE,107,0.0,0.0,95,0.00,,,0.14,Wunderground v.1.15,2013-01-24 21:53:00,
2013-01-24 13:55:00,42.3,41.0,30.08,ESE,107,0.0,0.0,95,0.00,,,0.14,Wunderground v.1.15,2013-01-24 21:55:00,
2013-01-24 13:57:00,42.3,41.0,30.08,ESE,107,0.0,0.0,95,0.00,,,0.14,Wunderground v.1.15,2013-01-24 21:57:00,
2013-01-24 13:59:00,42.3,41.0,30.08,ESE,107,0.0,0.0,95,0.00,,,0.14,Wunderground v.1.15,2013-01-24 21:59:00,
2013-01-24 14:00:00,42.3,41.0,30.08,ESE,107,0.0,0.0,95,0.00,,,0.14,Wunderground v.1.15,2013-01-24 22:00:00,
2013-01-24 14:02:00,42.3,41.0,30.08,ESE,107,0.0,0.0,95,0.00,,,0.14,Wunderground v.1.15,2013-01-24 22:02:00,
2013-01-24 14:04:00,42.3,41.0,30.08,ESE,107,0.0,0.0,95,0.00,,,0.14,Wunderground v.1.15,2013-01-24 22:04:00,
2013-01-24 14:06:00,42.3,41.0,30.08,ESE,107,0.0,0.0,95,0.00,,,0.14,Wunderground v.1.15,2013-01-24 22:06:00,
2013-01-24 14:10:00,42.1,40.8,30.08,ESE,107,0.0,0.0,95,0.00,,,0.14,Wunderground v.1.15,2013-01-24 22:10:00,
2013-01-24 14:12:00,42.1,40.8,30.08,ESE,107,0.0,0.0,95,0.00,,,0.14,Wunderground v.1.15,2013-01-24 22:12:00,
2013-01-24 14:15:00,42.1,40.8,30.08,ESE,107,0.0,0.0,95,0.00,,,0.14,Wunderground v.1.15,2013-01-24 22:15:00,
2013-01-24 14:16:00,42.1,40.8,30.07,ESE,107,0.0,0.0,95,0.00,,,0.14,Wunderground v.1.15,2013-01-24 22:16:00,
2013-01-24 14:17:00,42.0,40.4,30.07,ESE,107,0.0,0.0,94,0.00,,,0.14,Wunderground v.1.15,2013-01-24 22:17:00,
2013-01-24 14:20:00,42.0,40.4,30.07,ESE,107,0.0,0.0,94,0.00,,,0.14,Wunderground v.1.15,2013-01-24 22:20:00,
2013-01-24 14:21:00,42.0,40.4,30.07,ESE,107,0.0,0.0,94,0.00,,,0.14,Wunderground v.1.15,2013-01-24 22:21:00,
2013-01-24 14:22:00,41.8,40.2,30.07,ESE,107,0.0,0.0,94,0.00,,,0.14,Wunderground v.1.15,2013-01-24 22:22:00,
2013-01-24 14:25:00,41.8,40.2,30.07,ESE,107,0.0,0.0,94,0.00,,,0.14,Wunderground v.1.15,2013-01-24 22:25:00,
2013-01-24 14:26:00,41.8,40.2,30.07,ESE,107,0.0,0.0,94,0.00,,,0.14,Wunderground v.1.15,2013-01-24 22:26:00,
2013-01-24 14:28:00,41.8,40.2,30.07,ESE,107,0.0,0.0,94,0.00,,,0.14,Wunderground v.1.15,2013-01-24 22:28:00,
2013-01-24 14:31:00,41.8,40.2,30.07,ESE,107,0.0,0.0,94,0.00,,,0.14,Wunderground v.1.15,2013-01-24 22:31:00,
2013-01-24 14:33:00,41.7,40.1,30.07,ESE,107,0.0,0.0,94,0.00,,,0.14,Wunderground v.1.15,2013-01-24 22:33:00,
2013-01-24 14:36:00,41.7,40.1,30.07,ESE,107,0.0,0.0,94,0.00,,,0.14,Wunderground v.1.15,2013-01-24 22:36:00,
2013-01-24 14:38:00,41.7,40.1,30.07,ESE,107,0.0,0.0,94,0.00,,,0.14,Wunderground v.1.15,2013-01-24 22:38:00,
2013-01-24 14:41:00,41.7,40.1,30.07,ESE,107,0.0,0.0,94,0.00,,,0.14,Wunderground v.1.15,2013-01-24 22:41:00,
2013-01-24 14:43:00,41.6,40.0,30.07,ESE,107,0.0,0.0,94,0.00,,,0.14,Wunderground v.1.15,2013-01-24 22:43:00,
2013-01-24 14:46:00,41.4,39.8,30.07,ESE,107,0.0,0.0,94,0.00,,,0.14,Wunderground v.1.15,2013-01-24 22:46:00,
2013-01-24 14:47:00,41.4,39.8,30.07,ESE,107,0.0,0.0,94,0.00,,,0.14,Wunderground v.1.15,2013-01-24 22:47:00,
2013-01-24 14:48:00,41.3,39.7,30.07,ESE,107,0.0,0.0,94,0.00,,,0.14,Wunderground v.1.15,2013-01-24 22:48:00,
2013-01-24 14:52:00,41.3,39.7,30.07,ESE,107,0.0,0.0,94,0.00,,,0.14,Wunderground v.1.15,2013-01-24 22:52:00,
2013-01-24 14:53:00,41.3,39.7,30.07,ESE,107,0.0,0.0,94,0.00,,,0.14,Wunderground v.1.15,2013-01-24 22:53:00,
2013-01-24 14:57:00,41.1,39.5,30.07,ESE,107,0.0,0.0,94,0.00,,,0.14,Wunderground v.1.15,2013-01-24 22:57:00,
2013-01-24 14:58:00,41.1,39.5,30.07,ESE,107,0.0,0.0,94,0.00,,,0.14,Wunderground v.1.15,2013-01-24 22:58:00,
2013-01-24 14:59:00,41.1,39.5,30.07,ESE,107,0.0,0.0,94,0.00,,,0.14,Wunderground v.1.15,2013-01-24 22:59:00,
2013-01-24 15:03:00,41.1,39.5,30.06,ESE,107,0.0,0.0,94,0.00,,,0.14,Wunderground v.1.15,2013-01-24 23:03:00,
2013-01-24 15:04:00,41.1,39.5,30.06,ESE,107,0.0,0.0,94,0.00,,,0.14,Wunderground v.1.15,2013-01-24 23:04:00,
2013-01-24 15:10:00,41.1,39.5,30.06,ESE,107,0.0,0.0,94,0.00,,,0.14,Wunderground v.1.15,2013-01-24 23:10:00,
2013-01-24 15:11:00,41.1,39.5,30.06,ESE,107,0.0,0.0,94,0.00,,,0.14,Wunderground v.1.15,2013-01-24 23:11:00,
2013-01-24 15:15:00,41.1,39.5,30.06,ESE,107,0.0,0.0,94,0.00,,,0.14,Wunderground v.1.15,2013-01-24 23:15:00,
2013-01-24 15:16:00,41.1,39.5,30.06,ESE,107,0.0,0.0,94,0.00,,,0.14,Wunderground v.1.15,2013-01-24 23:16:00,
2013-01-24 15:21:00,41.1,39.5,30.06,ESE,107,0.0,0.0,94,0.00,,,0.14,Wunderground v.1.15,2013-01-24 23:21:00,
2013-01-24 15:27:00,41.0,39.4,30.06,ESE,107,0.0,0.0,94,0.00,,,0.14,Wunderground v.1.15,2013-01-24 23:27:00,
2013-01-24 15:28:00,41.0,39.4,30.06,ESE,107,0.0,0.0,94,0.00,,,0.14,Wunderground v.1.15,2013-01-24 23:28:00,
2013-01-24 15:32:00,40.8,39.2,30.06,ESE,107,0.0,0.0,94,0.00,,,0.14,Wunderground v.1.15,2013-01-24 23:32:00,
2013-01-24 15:33:00,40.8,39.2,30.06,ESE,107,0.0,0.0,94,0.00,,,0.14,Wunderground v.1.15,2013-01-24 23:33:00,
2013-01-24 15:38:00,40.7,39.1,30.06,ESE,107,0.0,0.0,94,0.00,,,0.14,Wunderground v.1.15,2013-01-24 23:38:00,
2013-01-24 15:43:00,40.6,39.0,30.06,ESE,107,0.0,0.0,94,0.00,,,0.14,Wunderground v.1.15,2013-01-24 23:43:00,
2013-01-24 15:44:00,40.6,39.0,30.06,ESE,107,0.0,0.0,94,0.00,,,0.14,Wunderground v.1.15,2013-01-24 23:44:00,
2013-01-24 15:48:00,40.4,38.8,30.06,ESE,107,0.0,0.0,94,0.00,,,0.14,Wunderground v.1.15,2013-01-24 23:48:00,
2013-01-24 15:49:00,40.4,38.8,30.06,ESE,107,0.0,0.0,94,0.00,,,0.14,Wunderground v.1.15,2013-01-24 23:49:00,
2013-01-24 15:50:00,40.4,38.8,30.06,ESE,107,0.0,0.0,94,0.00,,,0.14,Wunderground v.1.15,2013-01-24 23:50:00,
2013-01-24 15:53:00,40.4,38.8,30.06,ESE,107,0.0,0.0,94,0.00,,,0.14,Wunderground v.1.15,2013-01-24 23:53:00,
2013-01-24 15:54:00,40.3,38.7,30.06,ESE,107,0.0,0.0,94,0.00,,,0.14,Wunderground v.1.15,2013-01-24 23:54:00,
2013-01-24 15:56:00,40.3,38.7,30.06,ESE,107,0.0,0.0,94,0.00,,,0.14,Wunderground v.1.15,2013-01-24 23:56:00,
2013-01-24 15:59:00,40.1,38.5,30.06,ESE,107,0.0,0.0,94,0.00,,,0.14,Wunderground v.1.15,2013-01-24 23:59:00,
2013-01-24 16:00:00,40.1,38.5,30.06,ESE,107,0.0,0.0,94,0.00,,,0.14,Wunderground v.1.15,2013-01-25 00:00:00,
2013-01-24 16:01:00,40.1,38.5,30.06,ESE,107,0.0,0.0,94,0.00,,,0.14,Wunderground v.1.15,2013-01-25 00:01:00,
2013-01-24 16:04:00,40.1,38.5,30.06,ESE,107,0.0,0.0,94,0.00,,,0.14,Wunderground v.1.15,2013-01-25 00:04:00,
2013-01-24 16:05:00,40.1,38.5,30.06,ESE,107,0.0,0.0,94,0.00,,,0.14,Wunderground v.1.15,2013-01-25 00:05:00,
2013-01-24 16:06:00,40.1,38.5,30.06,ESE,107,0.0,0.0,94,0.00,,,0.14,Wunderground v.1.15,2013-01-25 00:06:00,
2013-01-24 16:09:00,40.0,38.4,30.06,ESE,107,0.0,0.0,94,0.00,,,0.14,Wunderground v.1.15,2013-01-25 00:09:00,
2013-01-24 16:11:00,40.0,38.4,30.06,ESE,107,0.0,0.0,94,0.00,,,0.14,Wunderground v.1.15,2013-01-25 00:11:00,
2013-01-24 16:12:00,40.0,38.4,30.06,ESE,107,0.0,0.0,94,0.00,,,0.14,Wunderground v.1.15,2013-01-25 00:12:00,
2013-01-24 16:15:00,40.0,38.4,30.06,ESE,107,0.0,0.0,94,0.00,,,0.14,Wunderground v.1.15,2013-01-25 00:15:00,
2013-01-24 16:16:00,39.8,38.2,30.04,ESE,107,0.0,0.0,94,0.00,,,0.14,Wunderground v.1.15,2013-01-25 00:16:00,
2013-01-24 16:17:00,39.8,38.2,30.04,ESE,107,0.0,0.0,94,0.00,,,0.14,Wunderground v.1.15,2013-01-25 00:17:00,
2013-01-24 16:18:00,39.8,38.2,30.04,ESE,107,0.0,0.0,94,0.00,,,0.14,Wunderground v.1.15,2013-01-25 00:18:00,
2013-01-24 16:20:00,39.8,38.2,30.04,ESE,107,0.0,0.0,94,0.00,,,0.14,Wunderground v.1.15,2013-01-25 00:20:00,
2013-01-24 16:22:00,39.8,38.2,30.04,ESE,107,0.0,0.0,94,0.00,,,0.14,Wunderground v.1.15,2013-01-25 00:22:00,
2013-01-24 16:23:00,39.8,38.2,30.04,ESE,107,0.0,0.0,94,0.00,,,0.14,Wunderground v.1.15,2013-01-25 00:23:00,
2013-01-24 16:24:00,39.8,38.2,30.04,SE,126,0.0,2.0,94,0.00,,,0.14,Wunderground v.1.15,2013-01-25 00:24:00,
2013-01-24 16:25:00,39.8,38.2,30.04,SE,126,0.0,2.0,94,0.00,,,0.14,Wunderground v.1.15,2013-01-25 00:25:00,
2013-01-24 16:27:00,39.8,38.2,30.04,SE,126,0.0,2.0,94,0.00,,,0.14,Wunderground v.1.15,2013-01-25 00:27:00,
2013-01-24 16:28:00,39.8,38.2,30.04,ENE,71,0.0,2.0,94,0.00,,,0.14,Wunderground v.1.15,2013-01-25 00:28:00,
2013-01-24 16:31:00,39.8,38.2,30.04,ENE,71,0.0,0.0,94,0.00,,,0.14,Wunderground v.1.15,2013-01-25 00:31:00,
2013-01-24 16:32:00,39.7,38.1,30.04,ENE,71,0.0,1.0,94,0.00,,,0.14,Wunderground v.1.15,2013-01-25 00:32:00,
2013-01-24 16:35:00,39.7,38.1,30.04,WNW,290,0.0,1.0,94,0.00,,,0.14,Wunderground v.1.15,2013-01-25 00:35:00,
2013-01-24 16:36:00,39.6,38.0,30.04,South,182,4.0,4.0,94,0.00,,,0.14,Wunderground v.1.15,2013-01-25 00:36:00,
2013-01-24 16:37:00,39.6,38.0,30.04,South,183,1.0,4.0,94,0.00,,,0.14,Wunderground v.1.15,2013-01-25 00:37:00,
2013-01-24 16:41:00,39.6,38.0,30.04,South,183,1.0,1.0,94,0.00,,,0.14,Wunderground v.1.15,2013-01-25 00:41:00,
2013-01-24 16:43:00,39.6,38.0,30.04,South,183,0.0,1.0,94,0.00,,,0.14,Wunderground v.1.15,2013-01-25 00:43:00,
2013-01-24 16:44:00,39.6,38.0,30.04,South,183,0.0,1.0,94,0.00,,,0.14,Wunderground v.1.15,2013-01-25 00:44:00,
2013-01-24 16:49:00,39.6,38.0,30.05,NNE,30,4.0,4.0,94,0.00,,,0.14,Wunderground v.1.15,2013-01-25 00:49:00,
2013-01-24 16:50:00,39.6,38.0,30.05,North,350,0.0,4.0,94,0.00,,,0.14,Wunderground v.1.15,2013-01-25 00:50:00,
2013-01-24 16:52:00,39.6,38.0,30.05,South,190,0.0,4.0,94,0.00,,,0.14,Wunderground v.1.15,2013-01-25 00:52:00,
2013-01-24 16:54:00,39.6,38.0,30.05,SSW,211,0.0,4.0,94,0.00,,,0.14,Wunderground v.1.15,2013-01-25 00:54:00,
2013-01-24 16:55:00,39.6,38.0,30.05,SSE,149,5.0,6.0,94,0.00,,,0.14,Wunderground v.1.15,2013-01-25 00:55:00,
2013-01-24 16:57:00,39.6,38.0,30.05,SSE,165,1.0,6.0,94,0.00,,,0.14,Wunderground v.1.15,2013-01-25 00:57:00,
2013-01-24 16:59:00,39.6,38.0,30.05,SSE,152,0.0,6.0,94,0.00,,,0.14,Wunderground v.1.15,2013-01-25 00:59:00,
2013-01-24 17:01:00,39.7,37.8,30.08,South,179,1.0,1.0,93,0.00,,,0.14,Wunderground v.1.15,2013-01-25 01:01:00,
2013-01-24 17:02:00,39.7,37.6,30.08,SE,130,0.0,5.0,92,0.00,,,0.14,Wunderground v.1.15,2013-01-25 01:02:00,
2013-01-24 17:04:00,39.8,37.7,30.08,SE,127,3.0,7.0,92,0.00,,,0.14,Wunderground v.1.15,2013-01-25 01:04:00,
2013-01-24 17:06:00,39.8,37.7,30.08,SSW,211,0.0,7.0,92,0.00,,,0.14,Wunderground v.1.15,2013-01-25 01:06:00,
2013-01-24 17:07:00,39.8,37.4,30.08,SSW,210,1.0,7.0,91,0.00,,,0.14,Wunderground v.1.15,2013-01-25 01:07:00,
2013-01-24 17:10:00,40.0,37.6,30.08,NW,324,1.0,7.0,91,0.00,,,0.14,Wunderground v.1.15,2013-01-25 01:10:00,
2013-01-24 17:12:00,40.0,37.6,30.08,NE,39,0.0,2.0,91,0.00,,,0.14,Wunderground v.1.15,2013-01-25 01:12:00,
2013-01-24 17:13:00,40.0,37.9,30.08,NE,39,0.0,2.0,92,0.00,,,0.14,Wunderground v.1.15,2013-01-25 01:13:00,
2013-01-24 17:15:00,40.0,37.9,30.08,NW,313,1.0,2.0,92,0.00,,,0.14,Wunderground v.1.15,2013-01-25 01:15:00,
2013-01-24 17:17:00,39.8,37.7,30.10,WSW,256,0.0,2.0,92,0.00,,,0.14,Wunderground v.1.15,2013-01-25 01:17:00,
2013-01-24 17:18:00,39.8,37.7,30.10,WSW,256,0.0,2.0,92,0.00,,,0.14,Wunderground v.1.15,2013-01-25 01:18:00,
2013-01-24 17:19:00,39.8,37.7,30.10,NNE,25,1.0,2.0,92,0.00,,,0.14,Wunderground v.1.15,2013-01-25 01:19:00,
2013-01-24 17:21:00,39.7,37.6,30.10,NNE,25,0.0,1.0,92,0.00,,,0.14,Wunderground v.1.15,2013-01-25 01:21:00,
2013-01-24 17:23:00,39.7,37.6,30.10,NNE,25,0.0,1.0,92,0.00,,,0.14,Wunderground v.1.15,2013-01-25 01:23:00,
2013-01-24 17:25:00,39.7,37.6,30.10,NNE,25,0.0,1.0,92,0.00,,,0.14,Wunderground v.1.15,2013-01-25 01:25:00,
2013-01-24 17:28:00,39.7,37.8,30.10,NNE,25,0.0,1.0,93,0.00,,,0.15,Wunderground v.1.15,2013-01-25 01:28:00,
2013-01-24 17:29:00,39.7,37.8,30.10,NNE,25,0.0,1.0,93,0.00,,,0.15,Wunderground v.1.15,2013-01-25 01:29:00,
2013-01-24 17:31:00,39.6,37.7,30.10,NNE,25,0.0,0.0,93,0.00,,,0.15,Wunderground v.1.15,2013-01-25 01:31:00,
2013-01-24 17:33:00,39.6,37.7,30.11,NE,45,0.0,2.0,93,0.10,,,0.16,Wunderground v.1.15,2013-01-25 01:33:00,
2013-01-24 17:34:00,39.6,37.7,30.11,NE,45,0.0,2.0,93,0.10,,,0.16,Wunderground v.1.15,2013-01-25 01:34:00,
2013-01-24 17:35:00,39.6,37.7,30.11,NE,45,0.0,2.0,93,0.10,,,0.16,Wunderground v.1.15,2013-01-25 01:35:00,
2013-01-24 17:36:00,39.6,37.7,30.11,NE,45,0.0,2.0,93,0.16,,,0.17,Wunderground v.1.15,2013-01-25 01:36:00,
2013-01-24 17:39:00,39.7,37.8,30.11,NNE,24,0.0,2.0,93,0.22,,,0.18,Wunderground v.1.15,2013-01-25 01:39:00,
2013-01-24 17:40:00,39.7,37.8,30.11,NNE,24,0.0,2.0,93,0.22,,,0.18,Wunderground v.1.15,2013-01-25 01:40:00,
2013-01-24 17:41:00,39.7,37.8,30.11,NNE,24,0.0,0.0,93,0.17,,,0.18,Wunderground v.1.15,2013-01-25 01:41:00,
2013-01-24 17:42:00,39.7,37.8,30.11,NNE,24,0.0,0.0,93,0.17,,,0.18,Wunderground v.1.15,2013-01-25 01:42:00,
2013-01-24 17:44:00,39.6,37.7,30.11,NNE,24,0.0,0.0,93,0.11,,,0.19,Wunderground v.1.15,2013-01-25 01:44:00,
2013-01-24 17:47:00,39.6,37.7,30.09,NNE,24,0.0,0.0,93,0.11,,,0.19,Wunderground v.1.15,2013-01-25 01:47:00,
2013-01-24 17:48:00,39.6,37.7,30.09,NNE,24,0.0,0.0,93,0.17,,,0.20,Wunderground v.1.15,2013-01-25 01:48:00,
2013-01-24 17:49:00,39.6,37.7,30.09,NNE,24,0.0,0.0,93,0.17,,,0.20,Wunderground v.1.15,2013-01-25 01:49:00,
2013-01-24 17:50:00,39.6,37.7,30.09,NNE,24,0.0,0.0,93,0.17,,,0.20,Wunderground v.1.15,2013-01-25 01:50:00,
2013-01-24 17:53:00,39.7,38.1,30.09,NNE,24,0.0,0.0,94,0.16,,,0.21,Wunderground v.1.15,2013-01-25 01:53:00,
2013-01-24 17:54:00,39.7,38.1,30.09,NNE,24,0.0,0.0,94,0.16,,,0.21,Wunderground v.1.15,2013-01-25 01:54:00,
2013-01-24 17:55:00,39.6,38.0,30.09,NNE,24,0.0,0.0,94,0.13,,,0.21,Wunderground v.1.15,2013-01-25 01:55:00,
2013-01-24 17:58:00,39.6,38.0,30.09,NNE,24,0.0,0.0,94,0.12,,,0.22,Wunderground v.1.15,2013-01-25 01:58:00,
2013-01-24 18:01:00,39.6,38.0,30.09,NNE,24,0.0,0.0,94,0.12,,,0.22,Wunderground v.1.15,2013-01-25 02:01:00,
2013-01-24 18:03:00,39.6,38.0,30.09,NNE,24,0.0,0.0,94,0.09,,,0.23,Wunderground v.1.15,2013-01-25 02:03:00,
2013-01-24 18:06:00,39.6,38.0,30.09,NNE,24,0.0,0.0,94,0.09,,,0.23,Wunderground v.1.15,2013-01-25 02:06:00,
2013-01-24 18:10:00,39.6,38.0,30.09,NNE,24,0.0,0.0,94,0.14,,,0.24,Wunderground v.1.15,2013-01-25 02:10:00,
2013-01-24 18:11:00,39.6,38.0,30.09,NNE,24,0.0,0.0,94,0.14,,,0.24,Wunderground v.1.15,2013-01-25 02:11:00,
2013-01-24 18:12:00,39.6,38.0,30.09,NNE,24,0.0,0.0,94,0.14,,,0.25,Wunderground v.1.15,2013-01-25 02:12:00,
2013-01-24 18:16:00,39.6,38.0,30.09,NNE,24,0.0,0.0,94,0.21,,,0.26,Wunderground v.1.15,2013-01-25 02:16:00,
2013-01-24 18:17:00,39.6,38.0,30.09,NNE,24,0.0,0.0,94,0.15,,,0.26,Wunderground v.1.15,2013-01-25 02:17:00,
2013-01-24 18:18:00,39.6,38.0,30.09,NNE,24,0.0,0.0,94,0.15,,,0.27,Wunderground v.1.15,2013-01-25 02:18:00,
2013-01-24 18:21:00,39.6,38.0,30.09,NNE,24,0.0,0.0,94,0.21,,,0.28,Wunderground v.1.15,2013-01-25 02:21:00,
2013-01-24 18:23:00,39.6,38.0,30.09,NNE,24,0.0,0.0,94,0.21,,,0.28,Wunderground v.1.15,2013-01-25 02:23:00,
2013-01-24 18:24:00,39.6,38.0,30.09,NNE,24,0.0,0.0,94,0.15,,,0.28,Wunderground v.1.15,2013-01-25 02:24:00,
2013-01-24 18:26:00,39.6,38.0,30.09,NNE,24,0.0,0.0,94,0.10,,,0.28,Wunderground v.1.15,2013-01-25 02:26:00,
2013-01-24 18:28:00,39.6,38.0,30.09,NNE,24,0.0,0.0,94,0.09,,,0.29,Wunderground v.1.15,2013-01-25 02:28:00,
2013-01-24 18:29:00,39.6,38.0,30.09,NNE,24,0.0,0.0,94,0.09,,,0.29,Wunderground v.1.15,2013-01-25 02:29:00,
2013-01-24 18:30:00,39.4,37.8,30.09,NNE,24,0.0,0.0,94,0.09,,,0.29,Wunderground v.1.15,2013-01-25 02:30:00,
2013-01-24 18:33:00,39.4,37.8,30.09,NNE,24,0.0,0.0,94,0.09,,,0.29,Wunderground v.1.15,2013-01-25 02:33:00,
2013-01-24 18:34:00,39.4,37.8,30.09,NNE,24,0.0,0.0,94,0.09,,,0.29,Wunderground v.1.15,2013-01-25 02:34:00,
2013-01-24 18:35:00,39.4,37.8,30.09,NNE,24,0.0,0.0,94,0.09,,,0.30,Wunderground v.1.15,2013-01-25 02:35:00,
2013-01-24 18:37:00,39.4,37.8,30.09,NNE,24,0.0,0.0,94,0.09,,,0.30,Wunderground v.1.15,2013-01-25 02:37:00,
2013-01-24 18:39:00,39.4,37.8,30.09,NNE,24,0.0,0.0,94,0.09,,,0.30,Wunderground v.1.15,2013-01-25 02:39:00,
2013-01-24 18:40:00,39.4,37.8,30.09,NNE,24,0.0,0.0,94,0.11,,,0.31,Wunderground v.1.15,2013-01-25 02:40:00,
2013-01-24 18:42:00,39.4,38.1,30.09,NNE,24,0.0,0.0,95,0.11,,,0.31,Wunderground v.1.15,2013-01-25 02:42:00,
2013-01-24 18:44:00,39.4,38.1,30.09,NNE,24,0.0,0.0,95,0.11,,,0.31,Wunderground v.1.15,2013-01-25 02:44:00,
2013-01-24 18:45:00,39.4,38.1,30.09,NNE,24,0.0,0.0,95,0.13,,,0.32,Wunderground v.1.15,2013-01-25 02:45:00,
2013-01-24 18:47:00,39.4,38.1,30.09,NNE,24,0.0,0.0,95,0.13,,,0.32,Wunderground v.1.15,2013-01-25 02:47:00,
2013-01-24 18:49:00,39.4,38.1,30.09,NNE,24,0.0,0.0,95,0.12,,,0.32,Wunderground v.1.15,2013-01-25 02:49:00,
2013-01-24 18:50:00,39.4,38.1,30.09,NNE,24,0.0,0.0,95,0.11,,,0.32,Wunderground v.1.15,2013-01-25 02:50:00,
2013-01-24 18:54:00,39.4,38.1,30.09,NNE,24,0.0,0.0,95,0.09,,,0.33,Wunderground v.1.15,2013-01-25 02:54:00,
2013-01-24 18:55:00,39.4,38.1,30.09,NNE,24,0.0,0.0,95,0.09,,,0.33,Wunderground v.1.15,2013-01-25 02:55:00,
2013-01-24 18:56:00,39.4,38.1,30.09,NNE,24,0.0,0.0,95,0.09,,,0.33,Wunderground v.1.15,2013-01-25 02:56:00,
2013-01-24 19:00:00,39.3,38.0,30.09,NNE,24,0.0,0.0,95,0.07,,,0.34,Wunderground v.1.15,2013-01-25 03:00:00,
2013-01-24 19:01:00,39.3,38.0,30.08,NNE,24,0.0,0.0,95,0.07,,,0.34,Wunderground v.1.15,2013-01-25 03:01:00,
2013-01-24 19:02:00,39.3,38.0,30.08,NNE,24,0.0,0.0,95,0.07,,,0.34,Wunderground v.1.15,2013-01-25 03:02:00,
2013-01-24 19:06:00,39.3,38.0,30.08,NNE,24,0.0,0.0,95,0.07,,,0.34,Wunderground v.1.15,2013-01-25 03:06:00,
2013-01-24 19:07:00,39.3,38.0,30.08,NNE,24,0.0,0.0,95,0.07,,,0.34,Wunderground v.1.15,2013-01-25 03:07:00,
2013-01-24 19:11:00,39.3,38.0,30.08,ESE,109,0.0,0.0,95,0.05,,,0.35,Wunderground v.1.15,2013-01-25 03:11:00,
2013-01-24 19:12:00,39.3,38.0,30.08,ESE,109,0.0,0.0,95,0.05,,,0.35,Wunderground v.1.15,2013-01-25 03:12:00,
2013-01-24 19:14:00,39.3,38.0,30.08,ESE,109,0.0,0.0,95,0.05,,,0.35,Wunderground v.1.15,2013-01-25 03:14:00,
2013-01-24 19:16:00,39.3,38.0,30.08,ESE,109,0.0,0.0,95,0.05,,,0.35,Wunderground v.1.15,2013-01-25 03:16:00,
2013-01-24 19:17:00,39.3,38.0,30.08,ESE,109,0.0,0.0,95,0.05,,,0.35,Wunderground v.1.15,2013-01-25 03:17:00,
2013-01-24 19:20:00,39.3,38.0,30.08,ESE,109,0.0,0.0,95,0.07,,,0.36,Wunderground v.1.15,2013-01-25 03:20:00,
2013-01-24 19:22:00,39.3,38.0,30.08,ESE,109,0.0,0.0,95,0.07,,,0.36,Wunderground v.1.15,2013-01-25 03:22:00,
2013-01-24 19:23:00,39.3,38.0,30.08,ESE,109,0.0,0.0,95,0.07,,,0.36,Wunderground v.1.15,2013-01-25 03:23:00,
2013-01-24 19:26:00,39.3,38.0,30.08,ESE,109,0.0,0.0,95,0.07,,,0.36,Wunderground v.1.15,2013-01-25 03:26:00,
2013-01-24 19:27:00,39.3,38.0,30.08,ESE,109,0.0,0.0,95,0.07,,,0.36,Wunderground v.1.15,2013-01-25 03:27:00,
2013-01-24 19:28:00,39.3,38.0,30.08,ESE,109,0.0,0.0,95,0.06,,,0.36,Wunderground v.1.15,2013-01-25 03:28:00,
2013-01-24 19:31:00,39.3,38.0,30.08,ESE,109,0.0,0.0,95,0.05,,,0.36,Wunderground v.1.15,2013-01-25 03:31:00,
2013-01-24 19:32:00,39.3,38.0,30.08,ESE,109,0.0,0.0,95,0.04,,,0.36,Wunderground v.1.15,2013-01-25 03:32:00,
2013-01-24 19:33:00,39.3,38.0,30.08,ESE,109,0.0,0.0,95,0.04,,,0.37,Wunderground v.1.15,2013-01-25 03:33:00,
2013-01-24 19:36:00,39.3,38.0,30.08,ESE,109,0.0,0.0,95,0.04,,,0.37,Wunderground v.1.15,2013-01-25 03:36:00,
2013-01-24 19:38:00,39.3,38.0,30.08,ESE,109,0.0,0.0,95,0.04,,,0.37,Wunderground v.1.15,2013-01-25 03:38:00,
2013-01-24 19:39:00,39.1,37.8,30.08,ESE,109,0.0,0.0,95,0.04,,,0.37,Wunderground v.1.15,2013-01-25 03:39:00,
2013-01-24 19:40:00,39.1,37.8,30.08,ESE,109,0.0,0.0,95,0.04,,,0.37,Wunderground v.1.15,2013-01-25 03:40:00,
2013-01-24 19:41:00,39.1,37.8,30.08,ESE,109,0.0,0.0,95,0.04,,,0.37,Wunderground v.1.15,2013-01-25 03:41:00,
2013-01-24 19:43:00,39.1,37.8,30.08,ESE,109,0.0,0.0,95,0.04,,,0.37,Wunderground v.1.15,2013-01-25 03:43:00,
2013-01-24 19:44:00,39.1,37.8,30.08,ESE,109,0.0,0.0,95,0.04,,,0.37,Wunderground v.1.15,2013-01-25 03:44:00,
2013-01-24 19:45:00,39.1,37.8,30.08,ESE,109,0.0,0.0,95,0.04,,,0.37,Wunderground v.1.15,2013-01-25 03:45:00,
2013-01-24 19:47:00,39.1,37.8,30.07,ESE,109,0.0,0.0,95,0.04,,,0.37,Wunderground v.1.15,2013-01-25 03:47:00,
2013-01-24 19:49:00,39.1,37.8,30.07,ESE,109,0.0,0.0,95,0.04,,,0.37,Wunderground v.1.15,2013-01-25 03:49:00,
2013-01-24 19:50:00,39.1,37.8,30.07,ESE,109,0.0,0.0,95,0.00,,,0.37,Wunderground v.1.15,2013-01-25 03:50:00,
2013-01-24 19:52:00,39.1,37.8,30.07,ESE,109,0.0,0.0,95,0.00,,,0.37,Wunderground v.1.15,2013-01-25 03:52:00,
2013-01-24 19:55:00,39.1,37.8,30.07,ESE,109,0.0,0.0,95,0.00,,,0.37,Wunderground v.1.15,2013-01-25 03:55:00,
2013-01-24 19:56:00,39.1,37.8,30.07,ESE,109,0.0,0.0,95,0.00,,,0.37,Wunderground v.1.15,2013-01-25 03:56:00,
2013-01-24 19:58:00,39.0,37.7,30.07,ESE,109,0.0,0.0,95,0.00,,,0.38,Wunderground v.1.15,2013-01-25 03:58:00,
2013-01-24 20:00:00,39.0,37.7,30.07,ESE,109,0.0,0.0,95,0.00,,,0.38,Wunderground v.1.15,2013-01-25 04:00:00,
2013-01-24 20:01:00,39.0,37.7,30.07,ESE,109,0.0,0.0,95,0.00,,,0.38,Wunderground v.1.15,2013-01-25 04:01:00,
2013-01-24 20:03:00,39.0,37.7,30.07,ENE,67,0.0,0.0,95,0.00,,,0.38,Wunderground v.1.15,2013-01-25 04:03:00,
2013-01-24 20:06:00,39.0,37.7,30.07,ENE,65,0.0,0.0,95,0.00,,,0.38,Wunderground v.1.15,2013-01-25 04:06:00,
2013-01-24 20:08:00,39.0,37.7,30.07,ENE,65,0.0,0.0,95,0.00,,,0.38,Wunderground v.1.15,2013-01-25 04:08:00,
2013-01-24 20:11:00,38.8,37.5,30.07,ENE,65,0.0,0.0,95,0.00,,,0.38,Wunderground v.1.15,2013-01-25 04:11:00,
2013-01-24 20:13:00,38.8,37.5,30.07,ENE,65,0.0,0.0,95,0.00,,,0.38,Wunderground v.1.15,2013-01-25 04:13:00,
2013-01-24 20:16:00,38.8,37.5,30.07,ENE,65,0.0,0.0,95,0.00,,,0.38,Wunderground v.1.15,2013-01-25 04:16:00,
2013-01-24 20:17:00,38.8,37.5,30.07,ENE,65,0.0,0.0,95,0.00,,,0.38,Wunderground v.1.15,2013-01-25 04:17:00,
2013-01-24 20:18:00,38.8,37.5,30.07,ENE,65,0.0,0.0,95,0.00,,,0.38,Wunderground v.1.15,2013-01-25 04:18:00,
2013-01-24 20:19:00,38.8,37.5,30.07,ENE,65,0.0,0.0,95,0.00,,,0.38,Wunderground v.1.15,2013-01-25 04:19:00,
2013-01-24 20:22:00,38.8,37.5,30.07,ENE,65,0.0,0.0,95,0.00,,,0.38,Wunderground v.1.15,2013-01-25 04:22:00,
2013-01-24 20:24:00,38.8,37.5,30.07,NE,37,0.0,0.0,95,0.00,,,0.38,Wunderground v.1.15,2013-01-25 04:24:00,
2013-01-24 20:27:00,38.8,37.5,30.07,East,79,0.0,0.0,95,0.00,,,0.38,Wunderground v.1.15,2013-01-25 04:27:00,
2013-01-24 20:28:00,38.8,37.5,30.07,East,80,0.0,0.0,95,0.00,,,0.38,Wunderground v.1.15,2013-01-25 04:28:00,
2013-01-24 20:29:00,38.8,37.5,30.07,East,80,0.0,0.0,95,0.00,,,0.38,Wunderground v.1.15,2013-01-25 04:29:00,
2013-01-24 20:30:00,38.8,37.5,30.07,East,80,0.0,0.0,95,0.00,,,0.38,Wunderground v.1.15,2013-01-25 04:30:00,
2013-01-24 20:32:00,38.8,37.5,30.06,East,80,0.0,0.0,95,0.00,,,0.38,Wunderground v.1.15,2013-01-25 04:32:00,
2013-01-24 20:33:00,38.8,37.5,30.06,East,80,0.0,0.0,95,0.00,,,0.38,Wunderground v.1.15,2013-01-25 04:33:00,
2013-01-24 20:34:00,39.0,37.7,30.06,East,80,0.0,0.0,95,0.00,,,0.38,Wunderground v.1.15,2013-01-25 04:34:00,
2013-01-24 20:35:00,39.0,37.7,30.06,ESE,121,1.0,1.0,95,0.00,,,0.38,Wunderground v.1.15,2013-01-25 04:35:00,
2013-01-24 20:37:00,39.0,37.7,30.06,ESE,121,0.0,1.0,95,0.00,,,0.38,Wunderground v.1.15,2013-01-25 04:37:00,
2013-01-24 20:40:00,39.0,37.7,30.06,ESE,121,0.0,1.0,95,0.00,,,0.38,Wunderground v.1.15,2013-01-25 04:40:00,
2013-01-24 20:42:00,39.0,37.7,30.06,ESE,121,0.0,0.0,95,0.00,,,0.38,Wunderground v.1.15,2013-01-25 04:42:00,
2013-01-24 20:45:00,39.0,37.7,30.06,ESE,121,0.0,0.0,95,0.00,,,0.38,Wunderground v.1.15,2013-01-25 04:45:00,
2013-01-24 20:48:00,39.1,37.8,30.06,ESE,121,0.0,0.0,95,0.00,,,0.38,Wunderground v.1.15,2013-01-25 04:48:00,
2013-01-24 20:52:00,39.1,37.8,30.06,ESE,121,0.0,0.0,95,0.00,,,0.38,Wunderground v.1.15,2013-01-25 04:52:00,
2013-01-24 20:53:00,39.1,37.8,30.06,ESE,121,0.0,0.0,95,0.00,,,0.38,Wunderground v.1.15,2013-01-25 04:53:00,
2013-01-24 20:54:00,39.1,37.8,30.06,ESE,121,0.0,0.0,95,0.00,,,0.38,Wunderground v.1.15,2013-01-25 04:54:00,
2013-01-24 20:56:00,39.1,37.8,30.06,ESE,121,0.0,0.0,95,0.00,,,0.38,Wunderground v.1.15,2013-01-25 04:56:00,
2013-01-24 20:58:00,39.1,37.8,30.06,ESE,121,0.0,0.0,95,0.00,,,0.38,Wunderground v.1.15,2013-01-25 04:58:00,
2013-01-24 20:59:00,39.1,37.8,30.06,ESE,121,0.0,0.0,95,0.00,,,0.38,Wunderground v.1.15,2013-01-25 04:59:00,
2013-01-24 21:02:00,39.1,37.8,30.06,ESE,117,0.0,0.0,95,0.00,,,0.39,Wunderground v.1.15,2013-01-25 05:02:00,
2013-01-24 21:03:00,39.1,37.8,30.06,ESE,117,0.0,0.0,95,0.00,,,0.39,Wunderground v.1.15,2013-01-25 05:03:00,
2013-01-24 21:07:00,39.1,37.8,30.06,NNE,18,0.0,1.0,95,0.00,,,0.39,Wunderground v.1.15,2013-01-25 05:07:00,
2013-01-24 21:08:00,39.3,38.0,30.06,NNE,18,0.0,1.0,95,0.00,,,0.39,Wunderground v.1.15,2013-01-25 05:08:00,
2013-01-24 21:11:00,39.3,38.0,30.06,NNE,18,0.0,0.0,95,0.00,,,0.39,Wunderground v.1.15,2013-01-25 05:11:00,
2013-01-24 21:12:00,39.3,38.0,30.06,NNE,18,0.0,0.0,95,0.00,,,0.39,Wunderground v.1.15,2013-01-25 05:12:00,
2013-01-24 21:13:00,39.3,38.0,30.06,East,80,0.0,0.0,95,0.00,,,0.39,Wunderground v.1.15,2013-01-25 05:13:00,
2013-01-24 21:14:00,39.3,38.0,30.06,East,94,0.0,0.0,95,0.00,,,0.39,Wunderground v.1.15,2013-01-25 05:14:00,
2013-01-24 21:17:00,39.3,38.0,30.05,East,94,0.0,0.0,95,0.00,,,0.39,Wunderground v.1.15,2013-01-25 05:17:00,
2013-01-24 21:18:00,39.3,38.0,30.05,East,94,0.0,0.0,95,0.00,,,0.39,Wunderground v.1.15,2013-01-25 05:18:00,
2013-01-24 21:20:00,39.3,38.0,30.05,East,94,0.0,0.0,95,0.00,,,0.39,Wunderground v.1.15,2013-01-25 05:20:00,
2013-01-24 21:22:00,39.3,38.0,30.05,East,94,0.0,0.0,95,0.00,,,0.39,Wunderground v.1.15,2013-01-25 05:22:00,
2013-01-24 21:23:00,39.3,38.0,30.05,East,94,0.0,0.0,95,0.00,,,0.39,Wunderground v.1.15,2013-01-25 05:23:00,
2013-01-24 21:25:00,39.3,38.0,30.05,East,94,0.0,0.0,95,0.00,,,0.39,Wunderground v.1.15,2013-01-25 05:25:00,
2013-01-24 21:26:00,39.3,38.0,30.05,ENE,77,0.0,0.0,95,0.00,,,0.39,Wunderground v.1.15,2013-01-25 05:26:00,
2013-01-24 21:27:00,39.3,38.0,30.05,ENE,77,0.0,0.0,95,0.00,,,0.39,Wunderground v.1.15,2013-01-25 05:27:00,
2013-01-24 21:28:00,39.3,38.0,30.05,ENE,77,0.0,0.0,95,0.00,,,0.39,Wunderground v.1.15,2013-01-25 05:28:00,
2013-01-24 21:30:00,39.3,38.0,30.05,ENE,77,0.0,0.0,95,0.00,,,0.39,Wunderground v.1.15,2013-01-25 05:30:00,
2013-01-24 21:32:00,39.3,38.0,30.05,ENE,77,0.0,0.0,95,0.00,,,0.39,Wunderground v.1.15,2013-01-25 05:32:00,
2013-01-24 21:33:00,39.3,38.0,30.05,ENE,77,0.0,0.0,95,0.00,,,0.39,Wunderground v.1.15,2013-01-25 05:33:00,
2013-01-24 21:34:00,39.3,38.0,30.05,ENE,77,0.0,0.0,95,0.00,,,0.39,Wunderground v.1.15,2013-01-25 05:34:00,
2013-01-24 21:36:00,39.3,38.0,30.05,ENE,77,0.0,0.0,95,0.00,,,0.39,Wunderground v.1.15,2013-01-25 05:36:00,
2013-01-24 21:38:00,39.3,38.0,30.05,ENE,77,0.0,0.0,95,0.00,,,0.39,Wunderground v.1.15,2013-01-25 05:38:00,
2013-01-24 21:39:00,39.3,38.0,30.05,ENE,77,0.0,0.0,95,0.00,,,0.39,Wunderground v.1.15,2013-01-25 05:39:00,
2013-01-24 21:41:00,39.3,38.0,30.05,ENE,77,0.0,0.0,95,0.00,,,0.39,Wunderground v.1.15,2013-01-25 05:41:00,
2013-01-24 21:43:00,39.3,38.0,30.05,ENE,77,0.0,0.0,95,0.00,,,0.39,Wunderground v.1.15,2013-01-25 05:43:00,
2013-01-24 21:44:00,39.3,38.0,30.05,ENE,77,0.0,0.0,95,0.00,,,0.39,Wunderground v.1.15,2013-01-25 05:44:00,
2013-01-24 21:47:00,39.3,38.0,30.04,ENE,77,0.0,0.0,95,0.00,,,0.39,Wunderground v.1.15,2013-01-25 05:47:00,
2013-01-24 21:49:00,39.3,38.0,30.04,ENE,77,0.0,0.0,95,0.00,,,0.39,Wunderground v.1.15,2013-01-25 05:49:00,
2013-01-24 21:50:00,39.3,38.0,30.04,ENE,77,0.0,0.0,95,0.00,,,0.39,Wunderground v.1.15,2013-01-25 05:50:00,
2013-01-24 21:53:00,39.3,38.0,30.04,ENE,77,0.0,0.0,95,0.00,,,0.39,Wunderground v.1.15,2013-01-25 05:53:00,
2013-01-24 21:55:00,39.3,38.0,30.04,ENE,77,0.0,0.0,95,0.00,,,0.39,Wunderground v.1.15,2013-01-25 05:55:00,
2013-01-24 21:56:00,39.3,38.0,30.04,ENE,77,0.0,0.0,95,0.00,,,0.39,Wunderground v.1.15,2013-01-25 05:56:00,
2013-01-24 21:58:00,39.3,38.0,30.04,ENE,77,0.0,0.0,95,0.00,,,0.39,Wunderground v.1.15,2013-01-25 05:58:00,
2013-01-24 22:01:00,39.4,38.1,30.04,NNE,29,0.0,3.0,95,0.00,,,0.39,Wunderground v.1.15,2013-01-25 06:01:00,
2013-01-24 22:04:00,39.4,38.1,30.04,NNE,29,0.0,3.0,95,0.00,,,0.39,Wunderground v.1.15,2013-01-25 06:04:00,
2013-01-24 22:06:00,39.4,38.1,30.04,NNE,29,0.0,3.0,95,0.00,,,0.39,Wunderground v.1.15,2013-01-25 06:06:00,
2013-01-24 22:07:00,39.4,38.1,30.04,NNE,29,0.0,3.0,95,0.00,,,0.39,Wunderground v.1.15,2013-01-25 06:07:00,
2013-01-24 22:12:00,39.6,38.3,30.04,NNE,29,0.0,0.0,95,0.00,,,0.39,Wunderground v.1.15,2013-01-25 06:12:00,
2013-01-24 22:17:00,39.6,38.3,30.04,NNE,29,0.0,0.0,95,0.00,,,0.39,Wunderground v.1.15,2013-01-25 06:17:00,
2013-01-24 22:18:00,39.6,38.3,30.04,NNE,29,0.0,0.0,95,0.00,,,0.39,Wunderground v.1.15,2013-01-25 06:18:00,
2013-01-24 22:22:00,39.7,38.4,30.04,NNE,29,0.0,0.0,95,0.00,,,0.39,Wunderground v.1.15,2013-01-25 06:22:00,
2013-01-24 22:23:00,39.7,38.4,30.04,NNE,29,0.0,0.0,95,0.00,,,0.39,Wunderground v.1.15,2013-01-25 06:23:00,
2013-01-24 22:28:00,39.8,38.5,30.04,NNE,25,0.0,0.0,95,0.00,,,0.39,Wunderground v.1.15,2013-01-25 06:28:00,
2013-01-24 22:29:00,39.8,38.5,30.04,NNE,25,0.0,0.0,95,0.00,,,0.39,Wunderground v.1.15,2013-01-25 06:29:00,
2013-01-24 22:33:00,39.8,38.5,30.04,NNE,25,0.0,0.0,95,0.00,,,0.39,Wunderground v.1.15,2013-01-25 06:33:00,
2013-01-24 22:34:00,39.8,38.5,30.04,NNE,25,0.0,0.0,95,0.00,,,0.39,Wunderground v.1.15,2013-01-25 06:34:00,
2013-01-24 22:38:00,40.0,38.7,30.04,ENE,76,0.0,1.0,95,0.00,,,0.39,Wunderground v.1.15,2013-01-25 06:38:00,
2013-01-24 22:39:00,40.0,38.7,30.04,ENE,76,0.0,1.0,95,0.00,,,0.39,Wunderground v.1.15,2013-01-25 06:39:00,
2013-01-24 22:40:00,40.0,38.7,30.04,ENE,76,0.0,0.0,95,0.00,,,0.39,Wunderground v.1.15,2013-01-25 06:40:00,
2013-01-24 22:44:00,40.1,38.8,30.04,SE,124,0.0,0.0,95,0.00,,,0.39,Wunderground v.1.15,2013-01-25 06:44:00,
2013-01-24 22:46:00,40.1,38.8,30.04,SE,124,0.0,0.0,95,0.00,,,0.39,Wunderground v.1.15,2013-01-25 06:46:00,
2013-01-24 22:49:00,40.3,39.0,30.04,NE,34,0.0,0.0,95,0.00,,,0.39,Wunderground v.1.15,2013-01-25 06:49:00,
2013-01-24 22:50:00,40.4,39.1,30.04,NE,34,0.0,0.0,95,0.00,,,0.39,Wunderground v.1.15,2013-01-25 06:50:00,
2013-01-24 22:51:00,40.4,39.1,30.04,NE,34,0.0,0.0,95,0.00,,,0.39,Wunderground v.1.15,2013-01-25 06:51:00,
2013-01-24 22:56:00,40.4,39.1,30.04,East,88,1.0,1.0,95,0.00,,,0.39,Wunderground v.1.15,2013-01-25 06:56:00,
2013-01-24 22:57:00,40.4,39.1,30.04,East,100,0.0,1.0,95,0.00,,,0.39,Wunderground v.1.15,2013-01-25 06:57:00,
2013-01-24 23:01:00,40.6,39.3,30.03,ENE,70,0.0,0.0,95,0.00,,,0.39,Wunderground v.1.15,2013-01-25 07:01:00,
2013-01-24 23:03:00,40.6,39.5,30.03,ENE,70,0.0,0.0,96,0.00,,,0.39,Wunderground v.1.15,2013-01-25 07:03:00,
2013-01-24 23:06:00,40.7,39.6,30.03,SE,136,0.0,1.0,96,0.00,,,0.39,Wunderground v.1.15,2013-01-25 07:06:00,
2013-01-24 23:07:00,40.7,39.6,30.03,SE,135,0.0,1.0,96,0.00,,,0.39,Wunderground v.1.15,2013-01-25 07:07:00,
2013-01-24 23:10:00,40.8,39.5,30.03,SE,136,0.0,0.0,95,0.00,,,0.39,Wunderground v.1.15,2013-01-25 07:10:00,
2013-01-24 23:12:00,40.8,39.5,30.03,SE,135,0.0,0.0,95,0.00,,,0.39,Wunderground v.1.15,2013-01-25 07:12:00,
2013-01-24 23:13:00,40.8,39.5,30.03,SE,135,0.0,0.0,95,0.00,,,0.39,Wunderground v.1.15,2013-01-25 07:13:00,
2013-01-24 23:17:00,40.8,39.5,30.03,SE,135,0.0,1.0,95,0.00,,,0.39,Wunderground v.1.15,2013-01-25 07:17:00,
2013-01-24 23:18:00,41.0,39.9,30.03,SE,135,0.0,1.0,96,0.00,,,0.39,Wunderground v.1.15,2013-01-25 07:18:00,
2013-01-24 23:22:00,41.0,39.9,30.03,SE,135,0.0,0.0,96,0.00,,,0.39,Wunderground v.1.15,2013-01-25 07:22:00,
2013-01-24 23:23:00,41.0,39.9,30.03,SE,135,0.0,0.0,96,0.00,,,0.39,Wunderground v.1.15,2013-01-25 07:23:00,
2013-01-24 23:25:00,41.0,39.9,30.03,West,279,0.0,1.0,96,0.00,,,0.39,Wunderground v.1.15,2013-01-25 07:25:00,
2013-01-24 23:27:00,41.0,39.9,30.03,West,281,0.0,1.0,96,0.00,,,0.39,Wunderground v.1.15,2013-01-25 07:27:00,
2013-01-24 23:28:00,41.1,40.0,30.03,West,281,0.0,1.0,96,0.00,,,0.39,Wunderground v.1.15,2013-01-25 07:28:00,
2013-01-24 23:31:00,41.1,40.0,30.03,South,171,0.0,0.0,96,0.00,,,0.39,Wunderground v.1.15,2013-01-25 07:31:00,
2013-01-24 23:32:00,41.1,40.0,30.03,South,171,0.0,0.0,96,0.00,,,0.39,Wunderground v.1.15,2013-01-25 07:32:00,
2013-01-24 23:34:00,41.1,40.0,30.03,South,171,0.0,0.0,96,0.00,,,0.39,Wunderground v.1.15,2013-01-25 07:34:00,
2013-01-24 23:37:00,41.3,40.2,30.03,South,171,0.0,0.0,96,0.00,,,0.39,Wunderground v.1.15,2013-01-25 07:37:00,
2013-01-24 23:38:00,41.3,40.2,30.03,South,171,0.0,0.0,96,0.00,,,0.39,Wunderground v.1.15,2013-01-25 07:38:00,
2013-01-24 23:39:00,41.3,40.2,30.03,South,171,0.0,0.0,96,0.00,,,0.39,Wunderground v.1.15,2013-01-25 07:39:00,
2013-01-24 23:42:00,41.3,40.2,30.03,South,171,0.0,0.0,96,0.00,,,0.39,Wunderground v.1.15,2013-01-25 07:42:00,
2013-01-24 23:44:00,41.3,40.2,30.03,South,171,0.0,0.0,96,0.00,,,0.39,Wunderground v.1.15,2013-01-25 07:44:00,
2013-01-24 23:45:00,41.3,40.2,30.03,South,171,0.0,0.0,96,0.00,,,0.39,Wunderground v.1.15,2013-01-25 07:45:00,
2013-01-24 23:47:00,41.3,40.2,30.03,South,171,0.0,0.0,96,0.00,,,0.39,Wunderground v.1.15,2013-01-25 07:47:00,
2013-01-24 23:49:00,41.4,40.3,30.03,South,171,0.0,0.0,96,0.00,,,0.39,Wunderground v.1.15,2013-01-25 07:49:00,
2013-01-24 23:50:00,41.4,40.3,30.03,South,171,0.0,0.0,96,0.00,,,0.39,Wunderground v.1.15,2013-01-25 07:50:00,
2013-01-24 23:52:00,41.4,40.3,30.03,South,171,0.0,0.0,96,0.00,,,0.39,Wunderground v.1.15,2013-01-25 07:52:00,
2013-01-24 23:54:00,41.4,40.3,30.03,South,171,0.0,0.0,96,0.00,,,0.39,Wunderground v.1.15,2013-01-25 07:54:00,
2013-01-24 23:55:00,41.4,40.3,30.03,South,171,0.0,0.0,96,0.00,,,0.39,Wunderground v.1.15,2013-01-25 07:55:00,
2013-01-24 23:57:00,41.4,40.3,30.03,SSE,155,0.0,2.0,96,0.00,,,0.39,Wunderground v.1.15,2013-01-25 07:57:00,